M I D A S
Marine Information and Data Acquisition System
Tripno 1736 of the Zeeleeuw from 2009-07-22 06:57:50 to 2009-07-22 14:39:28
Back to CruiseResearch ActivitiesStationsMapUnderway DataData graphs

EquipmentUnitsComment
TimeDGPSUTC
LatitudeDGPSDM.mWGS84
LongitudeDGPSDM.mWGS84
TemperatureSBE03/SBE38deg celciusITS90
ConductivitySBE21S/mITS90
SalinitySBE21 Practical Salinity Units
ChlorophylAChelsea fluorimeterg/lCalibrated in Aceton
Missing or incorrect values are displayed as -999
Sea surface data collected by the RV Zeeleeuw from 2009-07-22 06:56:46 to 2009-07-22 15:28:27
                                                                                    Next 1000 lines
Time Latitude Longitude Temperature Conductivity Salinity ChlorophylA
2009-07-22 06:56:56 51°13.662 2°55.96 20.7068 0.055277 0.293375 3.874799
2009-07-22 06:57:01 51°13.662 2°55.96 20.7039 0.055174 0.292815 3.909623
2009-07-22 06:57:06 51°13.662 2°55.96 20.6986 0.055277 0.293371 3.874799
2009-07-22 06:57:11 51°13.662 2°55.96 20.6759 0.055277 0.293366 3.909623
2009-07-22 06:57:16 51°13.662 2°55.96 20.6736 0.055277 0.293361 3.874799
2009-07-22 06:57:21 51°13.662 2°55.96 20.6734 0.055277 0.293361 3.874799
2009-07-22 06:57:26 51°13.662 2°55.96 20.6745 0.055277 0.293361 3.874799
2009-07-22 06:57:31 51°13.662 2°55.96 20.6769 0.055277 0.293356 3.874799
2009-07-22 06:57:36 51°13.662 2°55.96 20.6802 0.055277 0.293351 3.874799
2009-07-22 06:57:41 51°13.662 2°55.96 20.6821 0.055277 0.293346 3.909623
2009-07-22 06:57:46 51°13.662 2°55.96 20.6846 0.055277 0.293341 3.909623
2009-07-22 06:57:51 51°13.662 2°55.96 20.6904 0.055277 0.293341 3.909623
2009-07-22 06:57:56 51°13.662 2°55.96 20.6928 0.055277 0.293341 3.874799
2009-07-22 06:58:01 51°13.662 2°55.96 20.6956 0.055277 0.293336 3.874799
2009-07-22 06:58:06 51°13.662 2°55.96 20.6952 0.055277 0.293331 3.874799
2009-07-22 06:58:11 51°13.662 2°55.96 20.6951 0.055277 0.293326 3.874799
2009-07-22 06:58:16 51°13.662 2°55.96 20.6953 0.055277 0.293321 3.909623
2009-07-22 06:58:21 51°13.661 2°55.96 20.696 0.055277 0.293321 3.909623
2009-07-22 06:58:26 51°13.661 2°55.959 20.7014 0.055277 0.293321 3.874799
2009-07-22 06:58:31 51°13.661 2°55.959 20.7014 0.055277 0.293326 3.874799
2009-07-22 06:58:36 51°13.661 2°55.959 20.7006 0.055277 0.293326 3.874799
2009-07-22 06:58:41 51°13.661 2°55.96 20.7009 0.055277 0.293316 3.909623
2009-07-22 06:58:46 51°13.661 2°55.96 20.7004 0.055277 0.293311 3.874799
2009-07-22 06:58:51 51°13.66 2°55.959 20.7 0.055277 0.293311 3.874799
2009-07-22 06:58:56 51°13.659 2°55.959 20.6996 0.055277 0.293306 3.874799
2009-07-22 06:59:01 51°13.659 2°55.96 20.6997 0.055277 0.293306 3.874799
2009-07-22 06:59:06 51°13.659 2°55.96 20.7003 0.055277 0.293301 3.874799
2009-07-22 06:59:11 51°13.66 2°55.96 20.7001 0.055277 0.293296 3.874799
2009-07-22 06:59:16 51°13.66 2°55.961 20.7013 0.055277 0.293291 3.874799
2009-07-22 06:59:21 51°13.659 2°55.961 20.7019 0.055277 0.293291 3.874799
2009-07-22 06:59:26 51°13.659 2°55.961 20.7017 0.055277 0.293286 3.874799
2009-07-22 06:59:31 51°13.659 2°55.961 20.702 0.055277 0.293281 3.874799
2009-07-22 06:59:36 51°13.659 2°55.961 20.7021 0.055277 0.293281 3.874799
2009-07-22 06:59:41 51°13.659 2°55.961 20.7023 0.055277 0.293276 3.874799
2009-07-22 06:59:46 51°13.659 2°55.961 20.7023 0.055277 0.293271 3.874799
2009-07-22 06:59:51 51°13.659 2°55.961 20.7015 0.055277 0.293271 3.874799
2009-07-22 06:59:56 51°13.659 2°55.961 20.701 0.055277 0.293266 3.874799
2009-07-22 07:00:01 51°13.659 2°55.961 20.7008 0.055277 0.293266 3.874799
2009-07-22 07:00:06 51°13.659 2°55.961 20.7012 0.055277 0.293261 3.874799
2009-07-22 07:00:11 51°13.659 2°55.96 20.7016 0.055277 0.293256 3.874799
2009-07-22 07:00:16 51°13.66 2°55.96 20.702 0.055277 0.293256 3.874799
2009-07-22 07:00:20 51°13.66 2°55.96 20.7033 0.055277 0.293256 3.874799
2009-07-22 07:00:27 51°13.66 2°55.96 20.7047 0.055277 0.293251 3.874799
2009-07-22 07:00:31 51°13.66 2°55.96 20.7045 0.055277 0.293251 3.874799
2009-07-22 07:00:36 51°13.66 2°55.96 20.7044 0.055277 0.293246 3.874799
2009-07-22 07:00:41 51°13.661 2°55.96 20.7035 0.055277 0.293241 3.874799
2009-07-22 07:00:46 51°13.661 2°55.96 20.7028 0.055277 0.293241 3.874799
2009-07-22 07:00:51 51°13.661 2°55.96 20.7026 0.055277 0.293241 3.874799
2009-07-22 07:00:56 51°13.661 2°55.96 20.7034 0.055277 0.293236 3.874799
2009-07-22 07:01:01 51°13.661 2°55.96 20.7054 0.055277 0.293231 3.874799
2009-07-22 07:01:06 51°13.661 2°55.96 20.7097 0.055277 0.293231 3.874799
2009-07-22 07:01:11 51°13.661 2°55.96 20.7138 0.055277 0.293231 3.874799
2009-07-22 07:01:16 51°13.661 2°55.96 20.7151 0.055277 0.293226 3.874799
2009-07-22 07:01:21 51°13.66 2°55.961 20.7197 0.055277 0.293226 3.874799
2009-07-22 07:01:26 51°13.66 2°55.961 20.722 0.055277 0.293221 3.874799
2009-07-22 07:01:31 51°13.66 2°55.961 20.7226 0.055277 0.293221 3.874799
2009-07-22 07:01:36 51°13.66 2°55.961 20.7256 0.055277 0.293216 3.874799
2009-07-22 07:01:41 51°13.66 2°55.961 20.7283 0.055277 0.293211 3.874799
2009-07-22 07:01:46 51°13.66 2°55.962 20.7302 0.055277 0.293211 3.874799
2009-07-22 07:01:51 51°13.66 2°55.962 20.7299 0.055277 0.293211 3.874799
2009-07-22 07:01:56 51°13.66 2°55.961 20.7294 0.055277 0.293207 3.874799
2009-07-22 07:02:01 51°13.66 2°55.961 20.7296 0.055277 0.293202 3.874799
2009-07-22 07:02:06 51°13.66 2°55.961 20.7295 0.055277 0.293202 3.874799
2009-07-22 07:02:11 51°13.661 2°55.962 20.7291 0.055277 0.293197 3.874799
2009-07-22 07:02:16 51°13.661 2°55.962 20.7289 0.055277 0.293187 3.874799
2009-07-22 07:02:21 51°13.662 2°55.962 20.728 0.055277 0.293187 3.874799
2009-07-22 07:02:26 51°13.662 2°55.962 20.728 0.055277 0.293187 3.874799
2009-07-22 07:02:31 51°13.662 2°55.962 20.7276 0.055277 0.293182 3.839975
2009-07-22 07:02:36 51°13.662 2°55.962 20.727 0.055277 0.293182 3.874799
2009-07-22 07:02:41 51°13.662 2°55.962 20.7273 0.055277 0.293172 3.874799
2009-07-22 07:02:46 51°13.662 2°55.962 20.7278 0.055277 0.293172 3.874799
2009-07-22 07:02:51 51°13.662 2°55.961 20.7277 0.055277 0.293172 3.874799
2009-07-22 07:02:56 51°13.662 2°55.961 20.728 0.055277 0.293167 3.874799
2009-07-22 07:03:01 51°13.662 2°55.961 20.7285 0.055277 0.293162 3.874799
2009-07-22 07:03:06 51°13.662 2°55.961 20.7295 0.055277 0.293162 3.874799
2009-07-22 07:03:11 51°13.662 2°55.961 20.7295 0.055277 0.293162 3.874799
2009-07-22 07:03:16 51°13.661 2°55.96 20.7286 0.055277 0.293157 3.874799
2009-07-22 07:03:21 51°13.66 2°55.96 20.7286 0.055277 0.293157 3.874799
2009-07-22 07:03:26 51°13.66 2°55.96 20.7288 0.055277 0.293157 3.874799
2009-07-22 07:03:31 51°13.66 2°55.96 20.7289 0.055277 0.293152 3.874799
2009-07-22 07:03:36 51°13.66 2°55.96 20.7288 0.055277 0.293147 3.874799
2009-07-22 07:03:41 51°13.661 2°55.96 20.729 0.055277 0.293142 3.874799
2009-07-22 07:03:46 51°13.661 2°55.96 20.7285 0.055277 0.293137 3.839975
2009-07-22 07:03:51 51°13.661 2°55.96 20.7274 0.055277 0.293137 3.839975
2009-07-22 07:03:56 51°13.661 2°55.96 20.7259 0.055277 0.293132 3.874799
2009-07-22 07:04:01 51°13.661 2°55.959 20.7252 0.055277 0.293132 3.874799
2009-07-22 07:04:06 51°13.662 2°55.96 20.7245 0.055277 0.293127 3.874799
2009-07-22 07:04:11 51°13.662 2°55.96 20.7235 0.055277 0.293122 3.874799
2009-07-22 07:04:16 51°13.662 2°55.96 20.7236 0.055277 0.293117 3.874799
2009-07-22 07:04:21 51°13.663 2°55.96 20.7238 0.055277 0.293117 3.874799
2009-07-22 07:04:26 51°13.663 2°55.961 20.7247 0.055277 0.293112 3.874799
2009-07-22 07:04:31 51°13.663 2°55.961 20.7243 0.055277 0.293112 3.874799
2009-07-22 07:04:36 51°13.663 2°55.961 20.7232 0.055277 0.293107 3.839975
2009-07-22 07:04:41 51°13.663 2°55.96 20.7236 0.055277 0.293107 3.874799
2009-07-22 07:04:46 51°13.663 2°55.96 20.7246 0.055277 0.293102 3.874799
2009-07-22 07:04:51 51°13.662 2°55.96 20.7249 0.055277 0.293102 3.874799
2009-07-22 07:04:56 51°13.662 2°55.96 20.7255 0.055277 0.293097 3.874799
2009-07-22 07:05:01 51°13.662 2°55.96 20.7259 0.055277 0.293092 3.839975
2009-07-22 07:05:06 51°13.662 2°55.96 20.7256 0.055277 0.293087 3.874799
2009-07-22 07:05:11 51°13.662 2°55.961 20.726 0.055277 0.293082 3.874799
2009-07-22 07:05:16 51°13.662 2°55.961 20.7264 0.055277 0.293077 3.874799
2009-07-22 07:05:21 51°13.661 2°55.961 20.7264 0.055277 0.293077 3.874799
2009-07-22 07:05:26 51°13.661 2°55.961 20.7253 0.055277 0.293077 3.839975
2009-07-22 07:05:31 51°13.661 2°55.961 20.7241 0.055277 0.293068 3.874799
2009-07-22 07:05:36 51°13.661 2°55.961 20.7089 0.055277 0.293063 3.839975
2009-07-22 07:05:41 51°13.661 2°55.961 20.6752 0.055277 0.293053 3.874799
2009-07-22 07:05:46 51°13.661 2°55.96 20.6573 0.055277 0.293043 3.839975
2009-07-22 07:05:51 51°13.661 2°55.959 20.6669 0.055277 0.293043 3.839975
2009-07-22 07:05:56 51°13.661 2°55.958 20.6823 0.055277 0.293033 3.874799
2009-07-22 07:06:01 51°13.662 2°55.956 20.6687 0.055277 0.293038 3.839975
2009-07-22 07:06:06 51°13.662 2°55.954 20.6808 0.055277 0.293023 3.874799
2009-07-22 07:06:11 51°13.663 2°55.951 20.6575 0.055277 0.293023 3.839975
2009-07-22 07:06:16 51°13.664 2°55.947 20.6519 0.055277 0.292993 3.874799
2009-07-22 07:06:21 51°13.665 2°55.943 20.6805 0.055277 0.292993 3.874799
2009-07-22 07:06:26 51°13.667 2°55.938 20.6951 0.055277 0.292944 3.874799
2009-07-22 07:06:31 51°13.668 2°55.932 20.6915 0.055277 0.292929 3.874799
2009-07-22 07:06:36 51°13.67 2°55.926 20.7016 0.055277 0.292919 3.909623
2009-07-22 07:06:41 51°13.672 2°55.92 20.714 0.055277 0.292919 3.874799
2009-07-22 07:06:46 51°13.674 2°55.913 20.715 0.055277 0.292914 3.874799
2009-07-22 07:06:51 51°13.676 2°55.906 20.7137 0.055277 0.292914 3.874799
2009-07-22 07:06:56 51°13.678 2°55.899 20.7166 0.055277 0.292904 3.909623
2009-07-22 07:07:01 51°13.68 2°55.891 20.717 0.055277 0.292894 3.909623
2009-07-22 07:07:06 51°13.682 2°55.884 20.7204 0.055277 0.292884 3.909623
2009-07-22 07:07:11 51°13.684 2°55.876 20.7252 0.055277 0.292889 3.874799
2009-07-22 07:07:16 51°13.686 2°55.868 20.7247 0.055277 0.292889 3.874799
2009-07-22 07:07:21 51°13.688 2°55.861 20.7256 0.055277 0.292889 3.874799
2009-07-22 07:07:26 51°13.689 2°55.853 20.7229 0.055277 0.292894 3.874799
2009-07-22 07:07:31 51°13.69 2°55.845 20.705 0.055277 0.292894 3.874799
2009-07-22 07:07:36 51°13.69 2°55.837 20.6925 0.055277 0.292889 3.909623
2009-07-22 07:07:41 51°13.691 2°55.828 20.7179 0.055277 0.292884 3.874799
2009-07-22 07:07:46 51°13.691 2°55.82 20.7318 0.055277 0.292894 3.874799
2009-07-22 07:07:51 51°13.692 2°55.812 20.7377 0.055277 0.292894 3.874799
2009-07-22 07:07:56 51°13.692 2°55.804 20.7389 0.055277 0.292904 3.874799
2009-07-22 07:08:01 51°13.692 2°55.796 20.7388 0.05538 0.293463 3.874799
2009-07-22 07:08:06 51°13.692 2°55.789 20.7382 0.05538 0.293453 3.874799
2009-07-22 07:08:11 51°13.691 2°55.782 20.7349 0.05538 0.293453 3.874799
2009-07-22 07:08:16 51°13.691 2°55.776 20.7329 0.05538 0.293448 3.874799
2009-07-22 07:08:21 51°13.691 2°55.77 20.7277 0.05538 0.293448 3.874799
2009-07-22 07:08:26 51°13.691 2°55.764 20.7289 0.05538 0.293438 3.874799
2009-07-22 07:08:31 51°13.691 2°55.759 20.7414 0.05538 0.293438 3.874799
2009-07-22 07:08:36 51°13.691 2°55.755 20.7469 0.05538 0.293443 3.874799
2009-07-22 07:08:40 51°13.691 2°55.754 20.7466 0.05538 0.293453 3.909623
2009-07-22 07:08:45 51°13.691 2°55.753 20.75 0.05538 0.293448 3.874799
2009-07-22 07:08:50 51°13.692 2°55.753 20.7523 0.05538 0.293448 3.874799
2009-07-22 07:08:55 51°13.693 2°55.754 20.7473 0.05538 0.293453 3.874799
2009-07-22 07:09:00 51°13.694 2°55.755 20.739 0.05538 0.293448 3.874799
2009-07-22 07:09:05 51°13.695 2°55.756 20.7318 0.05538 0.293434 3.874799
2009-07-22 07:09:09 51°13.696 2°55.757 20.6992 0.05538 0.293424 3.874799
2009-07-22 07:09:14 51°13.697 2°55.757 20.662 0.05538 0.293404 3.874799
2009-07-22 07:09:19 51°13.697 2°55.757 20.6907 0.05538 0.293404 3.874799
2009-07-22 07:09:24 51°13.697 2°55.757 20.6504 0.05538 0.293399 3.874799
2009-07-22 07:09:29 51°13.696 2°55.756 20.7134 0.05538 0.293369 3.874799
2009-07-22 07:09:34 51°13.695 2°55.755 20.7246 0.05538 0.293334 3.909623
2009-07-22 07:09:39 51°13.695 2°55.754 20.728 0.05538 0.293324 3.944447
2009-07-22 07:09:44 51°13.694 2°55.754 20.7334 0.05538 0.293314 3.909623
2009-07-22 07:09:48 51°13.694 2°55.753 20.7367 0.05538 0.293314 3.909623
2009-07-22 07:09:53 51°13.694 2°55.753 20.7438 0.05538 0.29331 3.909623
2009-07-22 07:09:58 51°13.695 2°55.753 20.7458 0.05538 0.293314 3.909623
2009-07-22 07:10:03 51°13.696 2°55.753 20.7491 0.05538 0.293324 3.909623
2009-07-22 07:10:08 51°13.698 2°55.753 20.7482 0.05538 0.293329 3.909623
2009-07-22 07:10:12 51°13.7 2°55.752 20.7612 0.05538 0.293339 3.909623
2009-07-22 07:10:17 51°13.702 2°55.752 20.7608 0.05538 0.293339 3.909623
2009-07-22 07:10:23 51°13.706 2°55.75 20.7601 0.05538 0.293349 3.909623
2009-07-22 07:10:28 51°13.709 2°55.748 20.7579 0.05538 0.293354 3.944447
2009-07-22 07:10:32 51°13.711 2°55.746 20.7404 0.05538 0.293339 3.909623
2009-07-22 07:10:37 51°13.715 2°55.743 20.7454 0.05538 0.293319 3.909623
2009-07-22 07:10:43 51°13.72 2°55.738 20.7381 0.05538 0.293305 3.944447
2009-07-22 07:10:48 51°13.725 2°55.734 20.7386 0.05538 0.293305 3.944447
2009-07-22 07:10:52 51°13.729 2°55.73 20.7373 0.05538 0.29329 3.944447
2009-07-22 07:10:57 51°13.735 2°55.724 20.7247 0.05538 0.293275 3.909623
2009-07-22 07:11:02 51°13.741 2°55.718 20.7146 0.05538 0.29327 3.909623
2009-07-22 07:11:08 51°13.749 2°55.71 20.718 0.05538 0.29327 3.909623
2009-07-22 07:11:12 51°13.755 2°55.704 20.7231 0.05538 0.293275 3.909623
2009-07-22 07:11:17 51°13.763 2°55.697 20.7238 0.05538 0.293275 3.909623
2009-07-22 07:11:22 51°13.77 2°55.689 20.7138 0.05538 0.293275 3.909623
2009-07-22 07:11:28 51°13.78 2°55.679 20.711 0.05538 0.29328 3.909623
2009-07-22 07:11:32 51°13.787 2°55.672 20.6992 0.05538 0.293285 3.909623
2009-07-22 07:11:38 51°13.798 2°55.662 20.7065 0.05538 0.29328 3.909623
2009-07-22 07:11:43 51°13.808 2°55.654 20.7114 0.05538 0.293275 3.909623
2009-07-22 07:11:48 51°13.817 2°55.646 20.7154 0.05538 0.293275 3.909623
2009-07-22 07:11:52 51°13.825 2°55.639 20.7163 0.05538 0.29327 3.909623
2009-07-22 07:11:57 51°13.835 2°55.631 20.7242 0.05538 0.29326 3.909623
2009-07-22 07:12:02 51°13.846 2°55.622 20.7177 0.05538 0.29326 3.909623
2009-07-22 07:12:08 51°13.858 2°55.613 20.7335 0.05538 0.293255 3.909623
2009-07-22 07:12:12 51°13.866 2°55.605 20.7345 0.05538 0.29325 3.909623
2009-07-22 07:12:18 51°13.879 2°55.596 20.7392 0.05538 0.29325 3.909623
2009-07-22 07:12:22 51°13.888 2°55.589 20.7359 0.05538 0.293255 3.909623
2009-07-22 07:12:28 51°13.901 2°55.579 20.7383 0.05538 0.293255 3.909623
2009-07-22 07:12:32 51°13.91 2°55.572 20.7401 0.05538 0.29325 3.909623
2009-07-22 07:12:38 51°13.923 2°55.562 20.7355 0.05538 0.293245 3.909623
2009-07-22 07:12:42 51°13.932 2°55.555 20.739 0.05538 0.293245 3.909623
2009-07-22 07:12:47 51°13.943 2°55.547 20.7319 0.05538 0.293245 3.909623
2009-07-22 07:12:52 51°13.955 2°55.539 20.7324 0.05538 0.29324 3.909623
2009-07-22 07:12:57 51°13.966 2°55.53 20.7383 0.05538 0.293235 3.909623
2009-07-22 07:13:02 51°13.978 2°55.522 20.7535 0.05538 0.293235 3.874799
2009-07-22 07:13:08 51°13.992 2°55.512 20.7346 0.05538 0.293225 3.909623
2009-07-22 07:13:12 51°14.001 2°55.506 20.7438 0.05538 0.29322 3.909623
2009-07-22 07:13:18 51°14.015 2°55.495 20.7399 0.05538 0.29322 3.909623
2009-07-22 07:13:23 51°14.027 2°55.487 20.7465 0.05538 0.293215 3.909623
2009-07-22 07:13:28 51°14.038 2°55.479 20.7491 0.05538 0.29322 3.909623
2009-07-22 07:13:32 51°14.048 2°55.472 20.731 0.05538 0.29321 3.909623
2009-07-22 07:13:37 51°14.059 2°55.463 20.7354 0.05538 0.293205 3.909623
2009-07-22 07:13:42 51°14.071 2°55.455 20.7539 0.05538 0.293215 3.909623
2009-07-22 07:13:47 51°14.083 2°55.446 20.7547 0.05538 0.293215 3.909623
2009-07-22 07:13:52 51°14.095 2°55.437 20.7509 0.05538 0.293205 3.909623
2009-07-22 07:13:57 51°14.106 2°55.428 20.7422 0.05538 0.293201 3.909623
2009-07-22 07:14:02 51°14.118 2°55.419 20.7607 0.05538 0.293201 3.909623
2009-07-22 07:14:08 51°14.132 2°55.407 20.7528 0.05538 0.293201 3.909623
2009-07-22 07:14:12 51°14.141 2°55.399 20.76 0.05538 0.293196 3.909623
2009-07-22 07:14:17 51°14.152 2°55.388 20.7352 0.05538 0.293196 3.909623
2009-07-22 07:14:22 51°14.163 2°55.377 20.7576 0.05538 0.293186 3.909623
2009-07-22 07:14:28 51°14.176 2°55.363 20.7639 0.05538 0.293186 3.909623
2009-07-22 07:14:32 51°14.185 2°55.354 20.7649 0.05538 0.293191 3.909623
2009-07-22 07:14:37 51°14.196 2°55.341 20.752 0.05538 0.293186 3.909623
2009-07-22 07:14:42 51°14.207 2°55.329 20.7627 0.05538 0.293181 3.909623
2009-07-22 07:14:48 51°14.219 2°55.313 20.7564 0.05538 0.293181 3.909623
2009-07-22 07:14:52 51°14.228 2°55.302 20.7621 0.05538 0.293181 3.909623
2009-07-22 07:14:57 51°14.238 2°55.288 20.7483 0.05538 0.293181 3.909623
2009-07-22 07:15:02 51°14.248 2°55.273 20.7527 0.05538 0.293161 3.909623
2009-07-22 07:15:07 51°14.258 2°55.258 20.778 0.05538 0.293166 3.909623
2009-07-22 07:15:12 51°14.267 2°55.243 20.7509 0.05538 0.293156 3.909623
2009-07-22 07:15:17 51°14.277 2°55.227 20.7472 0.05538 0.293156 3.909623
2009-07-22 07:15:22 51°14.287 2°55.211 20.7532 0.05538 0.293141 3.909623
2009-07-22 07:15:27 51°14.296 2°55.194 20.7888 0.05538 0.293151 3.909623
2009-07-22 07:15:32 51°14.306 2°55.177 20.7875 0.05538 0.293166 3.909623
2009-07-22 07:15:37 51°14.315 2°55.16 20.7727 0.05538 0.293151 3.909623
2009-07-22 07:15:42 51°14.323 2°55.141 20.7541 0.05538 0.293126 3.874799
2009-07-22 07:15:48 51°14.333 2°55.119 20.7763 0.05538 0.293126 3.874799
2009-07-22 07:15:52 51°14.34 2°55.103 20.774 0.05538 0.293116 3.909623
2009-07-22 07:15:57 51°14.348 2°55.084 20.7684 0.05538 0.293097 3.909623
2009-07-22 07:16:01 51°14.354 2°55.068 20.7602 0.05538 0.293082 3.909623
2009-07-22 07:16:07 51°14.363 2°55.044 20.7735 0.05538 0.293082 3.874799
2009-07-22 07:16:12 51°14.371 2°55.023 20.7787 0.05538 0.293077 3.909623
2009-07-22 07:16:17 51°14.379 2°55.003 20.758 0.05538 0.293077 3.909623
2009-07-22 07:16:22 51°14.386 2°54.982 20.7543 0.05538 0.293067 3.874799
2009-07-22 07:16:27 51°14.394 2°54.961 20.7598 0.05538 0.293077 3.874799
2009-07-22 07:16:32 51°14.401 2°54.94 20.7714 0.05538 0.293092 3.909623
2009-07-22 07:16:36 51°14.407 2°54.923 20.7181 0.05538 0.293087 3.909623
2009-07-22 07:16:42 51°14.416 2°54.897 20.7545 0.05538 0.293067 3.909623
2009-07-22 07:16:48 51°14.424 2°54.871 20.7591 0.05538 0.293067 3.909623
2009-07-22 07:16:52 51°14.43 2°54.854 20.7557 0.05538 0.293052 3.909623
2009-07-22 07:16:57 51°14.437 2°54.831 20.7586 0.05538 0.293037 3.909623
2009-07-22 07:17:02 51°14.444 2°54.809 20.7747 0.05538 0.293022 3.909623
2009-07-22 07:17:08 51°14.453 2°54.782 20.768 0.05538 0.293032 3.909623
2009-07-22 07:17:12 51°14.458 2°54.764 20.7606 0.05538 0.293022 3.909623
2009-07-22 07:17:17 51°14.465 2°54.741 20.7594 0.05538 0.293022 3.909623
2009-07-22 07:17:22 51°14.472 2°54.718 20.7765 0.05538 0.293017 3.909623
2009-07-22 07:17:28 51°14.48 2°54.69 20.7495 0.05538 0.293027 3.909623
2009-07-22 07:17:32 51°14.486 2°54.672 20.7269 0.05538 0.293017 3.944447
2009-07-22 07:17:37 51°14.493 2°54.649 20.7492 0.05538 0.292988 4.014096
2009-07-22 07:17:41 51°14.498 2°54.63 20.7616 0.055483 0.293536 4.014096
2009-07-22 07:17:47 51°14.507 2°54.603 20.7555 0.055483 0.293536 4.014096
2009-07-22 07:17:52 51°14.514 2°54.58 20.7379 0.055483 0.293511 4.014096
2009-07-22 07:17:57 51°14.522 2°54.558 20.7598 0.055483 0.293472 4.014096
2009-07-22 07:18:02 51°14.53 2°54.535 20.7484 0.055483 0.293417 9.028759
2009-07-22 07:18:07 51°14.538 2°54.513 20.7425 0.055483 0.293348 6.556251
2009-07-22 07:18:12 51°14.546 2°54.491 20.7395 0.055483 0.293338 5.929418
2009-07-22 07:18:17 51°14.555 2°54.47 20.7638 0.055483 0.293338 5.929418
2009-07-22 07:18:21 51°14.562 2°54.453 20.7343 0.055483 0.293314 5.999067
2009-07-22 07:18:27 51°14.573 2°54.429 20.7558 0.055483 0.293328 5.894594
2009-07-22 07:18:32 51°14.583 2°54.41 20.7357 0.055483 0.293328 5.441882
2009-07-22 07:18:37 51°14.594 2°54.391 20.7342 0.055483 0.293343 6.173187
2009-07-22 07:18:42 51°14.605 2°54.374 20.7468 0.055483 0.293343 5.441882
2009-07-22 07:18:48 51°14.619 2°54.354 20.7607 0.055483 0.293343 5.441882
2009-07-22 07:18:52 51°14.629 2°54.342 20.7766 0.055483 0.293358 5.51153
2009-07-22 07:18:56 51°14.638 2°54.329 20.7246 0.055483 0.293383 5.894594
2009-07-22 07:19:02 51°14.653 2°54.311 20.7496 0.055483 0.293408 5.441882
2009-07-22 07:19:08 51°14.668 2°54.293 20.7515 0.055483 0.293398 5.198113
2009-07-22 07:19:12 51°14.678 2°54.282 20.7282 0.055483 0.293383 6.730372
2009-07-22 07:19:17 51°14.691 2°54.268 20.7224 0.055483 0.293383 6.730372
2009-07-22 07:19:22 51°14.704 2°54.255 20.7477 0.055483 0.293353 6.695548
2009-07-22 07:19:28 51°14.72 2°54.24 20.7519 0.055483 0.293348 5.790122
2009-07-22 07:19:32 51°14.73 2°54.23 20.7258 0.055483 0.293358 5.267761
2009-07-22 07:19:37 51°14.744 2°54.219 20.7645 0.055483 0.293378 4.884697
2009-07-22 07:19:42 51°14.757 2°54.207 20.7458 0.055483 0.293363 4.815049
2009-07-22 07:19:47 51°14.77 2°54.194 20.724 0.055483 0.293363 4.815049
2009-07-22 07:19:52 51°14.783 2°54.181 20.731 0.055483 0.293343 4.884697
2009-07-22 07:19:57 51°14.796 2°54.168 20.7126 0.055483 0.293328 5.058817
2009-07-22 07:20:02 51°14.809 2°54.156 20.7321 0.055483 0.293279 4.884697
2009-07-22 07:20:07 51°14.823 2°54.142 20.7446 0.055483 0.293195 6.242835
2009-07-22 07:20:12 51°14.835 2°54.129 20.7329 0.055483 0.293185 6.80002
2009-07-22 07:20:17 51°14.848 2°54.115 20.7293 0.055483 0.293185 6.80002
2009-07-22 07:20:22 51°14.861 2°54.102 20.7296 0.055483 0.29319 5.650826
2009-07-22 07:20:28 51°14.876 2°54.086 20.7176 0.055483 0.293239 4.954345
2009-07-22 07:20:32 51°14.886 2°54.075 20.7312 0.055483 0.293304 4.954345
2009-07-22 07:20:37 51°14.899 2°54.061 20.7229 0.055483 0.293383 4.989169
2009-07-22 07:20:42 51°14.912 2°54.048 20.7408 0.055483 0.293408 5.198113
2009-07-22 07:20:48 51°14.928 2°54.032 20.7401 0.055483 0.293408 5.198113
2009-07-22 07:20:52 51°14.938 2°54.022 20.7423 0.055483 0.293412 5.616002
2009-07-22 07:20:57 51°14.951 2°54.009 20.7432 0.055483 0.293398 6.138363
2009-07-22 07:21:01 51°14.961 2°53.999 20.7356 0.055483 0.293373 7.357205
2009-07-22 07:21:07 51°14.977 2°53.985 20.7014 0.055483 0.293353 5.476706
2009-07-22 07:21:12 51°14.99 2°53.971 20.7383 0.055483 0.293294 5.824946
2009-07-22 07:21:17 51°15.003 2°53.959 20.736 0.055483 0.293294 5.824946
2009-07-22 07:21:22 51°15.016 2°53.946 20.7499 0.055483 0.293279 5.441882
2009-07-22 07:21:28 51°15.032 2°53.931 20.7429 0.055483 0.293299 5.267761
2009-07-22 07:21:32 51°15.043 2°53.921 20.736 0.055483 0.293328 5.790122
2009-07-22 07:21:37 51°15.056 2°53.909 20.7156 0.055483 0.293343 5.128465
2009-07-22 07:21:42 51°15.069 2°53.896 20.7457 0.055483 0.293353 5.128465
2009-07-22 07:21:48 51°15.085 2°53.881 20.741 0.055483 0.293353 5.128465
2009-07-22 07:21:52 51°15.096 2°53.871 20.7388 0.055483 0.293383 6.242835
2009-07-22 07:21:57 51°15.109 2°53.86 20.7294 0.055483 0.293368 5.128465
2009-07-22 07:22:02 51°15.122 2°53.847 20.7496 0.055483 0.293353 5.616002
2009-07-22 07:22:08 51°15.138 2°53.832 20.7177 0.055483 0.293333 6.173187
2009-07-22 07:22:12 51°15.148 2°53.822 20.7246 0.055483 0.293289 5.163289
2009-07-22 07:22:17 51°15.161 2°53.809 20.7323 0.055483 0.293289 5.163289
2009-07-22 07:22:22 51°15.174 2°53.796 20.7414 0.055483 0.293289 8.401926
2009-07-22 07:22:28 51°15.189 2°53.782 20.7093 0.055483 0.293318 6.312483
2009-07-22 07:22:32 51°15.2 2°53.772 20.7309 0.055483 0.293314 6.939316
2009-07-22 07:22:37 51°15.213 2°53.759 20.7238 0.055483 0.293323 6.382131
2009-07-22 07:22:42 51°15.226 2°53.747 20.7288 0.055483 0.293323 6.208011
2009-07-22 07:22:48 51°15.242 2°53.732 20.7077 0.055483 0.293323 6.208011
2009-07-22 07:22:52 51°15.252 2°53.722 20.7383 0.055483 0.293304 6.347307
2009-07-22 07:22:57 51°15.265 2°53.71 20.7112 0.055483 0.293304 5.476706
2009-07-22 07:23:02 51°15.278 2°53.697 20.7263 0.055483 0.293309 5.824946
2009-07-22 07:23:08 51°15.294 2°53.682 20.7187 0.055483 0.293289 5.302586
2009-07-22 07:23:12 51°15.305 2°53.672 20.7311 0.055483 0.293294 7.392029
2009-07-22 07:23:17 51°15.318 2°53.66 20.728 0.055483 0.293294 7.392029
2009-07-22 07:23:22 51°15.331 2°53.647 20.739 0.055483 0.293299 6.277659
2009-07-22 07:23:28 51°15.347 2°53.632 20.7321 0.055483 0.293299 5.267761
2009-07-22 07:23:32 51°15.357 2°53.622 20.7379 0.055483 0.293254 5.267761
2009-07-22 07:23:37 51°15.37 2°53.609 20.7397 0.055483 0.293249 5.302586
2009-07-22 07:23:41 51°15.38 2°53.599 20.7451 0.055483 0.293244 5.302586
2009-07-22 07:23:47 51°15.396 2°53.583 20.7252 0.055483 0.293244 5.302586
2009-07-22 07:23:52 51°15.409 2°53.57 20.7381 0.055483 0.293225 5.302586
2009-07-22 07:23:57 51°15.422 2°53.557 20.7188 0.055483 0.293239 5.33741
2009-07-22 07:24:02 51°15.435 2°53.544 20.7262 0.055483 0.29322 5.85977
2009-07-22 07:24:08 51°15.45 2°53.529 20.7386 0.055483 0.293254 5.581178
2009-07-22 07:24:12 51°15.461 2°53.518 20.7286 0.055483 0.293269 6.033891
2009-07-22 07:24:16 51°15.471 2°53.508 20.7385 0.055483 0.293269 6.033891
2009-07-22 07:24:22 51°15.487 2°53.493 20.7026 0.055483 0.293299 6.173187
2009-07-22 07:24:27 51°15.5 2°53.48 20.726 0.055483 0.293314 6.521427
2009-07-22 07:24:32 51°15.513 2°53.468 20.7423 0.055483 0.293314 6.869668
2009-07-22 07:24:37 51°15.526 2°53.455 20.7155 0.055483 0.293314 6.033891
2009-07-22 07:24:42 51°15.539 2°53.442 20.7244 0.055483 0.293294 6.730372
2009-07-22 07:24:47 51°15.552 2°53.429 20.7422 0.055483 0.293294 6.730372
2009-07-22 07:24:52 51°15.565 2°53.416 20.7362 0.055483 0.293284 5.51153
2009-07-22 07:24:57 51°15.578 2°53.403 20.7056 0.055483 0.293249 6.486603
2009-07-22 07:25:02 51°15.591 2°53.39 20.7396 0.055483 0.293244 6.695548
2009-07-22 07:25:08 51°15.606 2°53.374 20.735 0.055483 0.29319 5.51153
2009-07-22 07:25:12 51°15.617 2°53.364 20.7122 0.055483 0.293155 5.929418
2009-07-22 07:25:17 51°15.63 2°53.351 20.689 0.055483 0.293155 5.929418
2009-07-22 07:25:22 51°15.643 2°53.338 20.7114 0.055483 0.29315 6.939316
2009-07-22 07:25:28 51°15.659 2°53.324 20.7268 0.055483 0.293264 8.506398
2009-07-22 07:25:32 51°15.67 2°53.315 20.717 0.055483 0.293274 5.720474
2009-07-22 07:25:37 51°15.684 2°53.304 20.7265 0.055483 0.293239 5.720474
2009-07-22 07:25:42 51°15.697 2°53.292 20.7339 0.055483 0.293234 8.123334
2009-07-22 07:25:48 51°15.714 2°53.28 20.7322 0.055483 0.293234 8.123334
2009-07-22 07:25:52 51°15.725 2°53.271 20.7285 0.055483 0.293225 8.367102
2009-07-22 07:25:57 51°15.738 2°53.26 20.7302 0.055483 0.293205 7.461677
2009-07-22 07:26:02 51°15.752 2°53.249 20.731 0.055483 0.29319 6.347307
2009-07-22 07:26:07 51°15.766 2°53.239 20.7391 0.055483 0.29315 6.312483
2009-07-22 07:26:12 51°15.78 2°53.229 20.7239 0.055483 0.29318 7.113436
2009-07-22 07:26:17 51°15.793 2°53.219 20.7279 0.055483 0.29318 7.113436
2009-07-22 07:26:22 51°15.807 2°53.208 20.7339 0.055483 0.293175 5.720474
2009-07-22 07:26:28 51°15.824 2°53.196 20.7378 0.055483 0.29318 6.416955
2009-07-22 07:26:32 51°15.835 2°53.187 20.7322 0.055483 0.293225 6.173187
2009-07-22 07:26:37 51°15.848 2°53.178 20.7184 0.055483 0.29321 5.790122
2009-07-22 07:26:42 51°15.862 2°53.167 20.7438 0.055483 0.29318 7.043788
2009-07-22 07:26:48 51°15.879 2°53.155 20.7467 0.055483 0.29318 7.043788
2009-07-22 07:26:52 51°15.889 2°53.146 20.7392 0.055483 0.293195 5.894594
2009-07-22 07:26:57 51°15.903 2°53.137 20.7354 0.055483 0.293249 6.939316
2009-07-22 07:27:01 51°15.914 2°53.128 20.7288 0.055483 0.293274 6.834844
2009-07-22 07:27:07 51°15.931 2°53.116 20.7393 0.055483 0.293195 8.053686
2009-07-22 07:27:12 51°15.944 2°53.106 20.7346 0.055483 0.293146 8.645695
2009-07-22 07:27:17 51°15.958 2°53.095 20.7361 0.055483 0.293146 8.645695
2009-07-22 07:27:22 51°15.972 2°53.085 20.7287 0.055483 0.293141 7.984038
2009-07-22 07:27:27 51°15.986 2°53.075 20.7493 0.055483 0.29316 6.208011
2009-07-22 07:27:32 51°15.999 2°53.065 20.7333 0.055483 0.293239 6.173187
2009-07-22 07:27:36 51°16.01 2°53.056 20.7366 0.055483 0.293244 8.784991
2009-07-22 07:27:42 51°16.027 2°53.044 20.7357 0.055483 0.29322 8.367102
2009-07-22 07:27:48 51°16.043 2°53.032 20.7386 0.055483 0.29322 8.367102
2009-07-22 07:27:52 51°16.054 2°53.024 20.7211 0.055483 0.293234 8.924287
2009-07-22 07:27:57 51°16.068 2°53.014 20.7157 0.055483 0.293269 6.834844
2009-07-22 07:28:02 51°16.082 2°53.003 20.7296 0.055483 0.293274 6.173187
2009-07-22 07:28:08 51°16.098 2°52.991 20.7313 0.055483 0.293234 6.591076
2009-07-22 07:28:12 51°16.109 2°52.983 20.7583 0.055483 0.293205 7.217908
2009-07-22 07:28:17 51°16.123 2°52.973 20.7331 0.055483 0.293205 7.217908
2009-07-22 07:28:22 51°16.137 2°52.963 20.7185 0.055586 0.293782 6.556251
2009-07-22 07:28:28 51°16.153 2°52.95 20.7332 0.055586 0.293763 7.078612
2009-07-22 07:28:32 51°16.164 2°52.942 20.7388 0.055586 0.293743 6.556251
2009-07-22 07:28:37 51°16.178 2°52.932 20.7454 0.055586 0.293703 7.531325
2009-07-22 07:28:42 51°16.191 2°52.921 20.7345 0.055586 0.293708 8.750167
2009-07-22 07:28:47 51°16.205 2°52.91 20.7453 0.055586 0.293708 8.750167
2009-07-22 07:28:52 51°16.218 2°52.9 20.7477 0.055586 0.293713 6.416955
2009-07-22 07:28:57 51°16.232 2°52.89 20.7394 0.055483 0.293175 6.904492
2009-07-22 07:29:02 51°16.246 2°52.879 20.7338 0.055586 0.293777 8.576047
2009-07-22 07:29:07 51°16.26 2°52.869 20.7314 0.055586 0.293792 9.481472
2009-07-22 07:29:12 51°16.273 2°52.859 20.7521 0.055586 0.293782 7.809917
2009-07-22 07:29:17 51°16.287 2°52.85 20.7511 0.055586 0.293782 7.809917
2009-07-22 07:29:22 51°16.301 2°52.839 20.7534 0.055586 0.293763 7.740269
2009-07-22 07:29:27 51°16.315 2°52.83 20.7377 0.055586 0.293733 8.08851
2009-07-22 07:29:32 51°16.328 2°52.819 20.7347 0.055586 0.293703 8.297454
2009-07-22 07:29:36 51°16.339 2°52.811 20.7289 0.055586 0.293683 9.446648
2009-07-22 07:29:42 51°16.356 2°52.799 20.7356 0.055586 0.293619 6.486603
2009-07-22 07:29:48 51°16.372 2°52.786 20.7365 0.055586 0.293619 6.486603
2009-07-22 07:29:52 51°16.383 2°52.778 20.7388 0.055586 0.293599 8.053686
2009-07-22 07:29:57 51°16.397 2°52.767 20.7397 0.055586 0.293594 8.750167
2009-07-22 07:30:02 51°16.411 2°52.759 20.7533 0.055586 0.293644 9.829713
2009-07-22 07:30:08 51°16.428 2°52.747 20.7477 0.055586 0.293669 10.108305
2009-07-22 07:30:12 51°16.439 2°52.74 20.7459 0.055586 0.293664 6.80002
2009-07-22 07:30:17 51°16.453 2°52.731 20.7482 0.055586 0.293664 6.80002
2009-07-22 07:30:22 51°16.467 2°52.723 20.7552 0.055586 0.293659 8.43675
2009-07-22 07:30:28 51°16.484 2°52.712 20.7482 0.055586 0.293644 9.028759
2009-07-22 07:30:32 51°16.495 2°52.705 20.7589 0.055586 0.293639 7.844741
2009-07-22 07:30:37 51°16.509 2°52.697 20.7589 0.055586 0.293609 6.591076
2009-07-22 07:30:41 51°16.52 2°52.69 20.7513 0.055586 0.293604 9.864537
2009-07-22 07:30:48 51°16.54 2°52.678 20.761 0.055586 0.293604 9.864537
2009-07-22 07:30:52 51°16.551 2°52.672 20.7649 0.055586 0.293624 7.984038
2009-07-22 07:30:57 51°16.565 2°52.663 20.7412 0.055586 0.293644 8.08851
2009-07-22 07:31:02 51°16.579 2°52.655 20.7646 0.055586 0.293654 9.342176
2009-07-22 07:31:08 51°16.596 2°52.645 20.7589 0.055586 0.293639 10.212777
2009-07-22 07:31:12 51°16.607 2°52.638 20.7628 0.055586 0.293634 8.680519
2009-07-22 07:31:17 51°16.621 2°52.63 20.7703 0.055586 0.293634 8.680519
2009-07-22 07:31:22 51°16.635 2°52.622 20.7534 0.055586 0.293604 8.715343
2009-07-22 07:31:28 51°16.652 2°52.612 20.7652 0.055586 0.293609 6.765196
2009-07-22 07:31:32 51°16.663 2°52.605 20.7703 0.055586 0.293619 6.660724
2009-07-22 07:31:37 51°16.677 2°52.597 20.7491 0.055586 0.293609 6.660724
2009-07-22 07:31:42 51°16.691 2°52.588 20.7643 0.055586 0.293594 6.730372
2009-07-22 07:31:48 51°16.707 2°52.579 20.7431 0.055586 0.293594 6.730372
2009-07-22 07:31:52 51°16.719 2°52.572 20.7438 0.055586 0.293599 7.705445
2009-07-22 07:31:57 51°16.733 2°52.565 20.7606 0.055586 0.293604 11.884332
2009-07-22 07:32:02 51°16.746 2°52.557 20.7725 0.055586 0.293599 8.819815
2009-07-22 07:32:08 51°16.763 2°52.548 20.7762 0.055586 0.293589 14.078247
2009-07-22 07:32:12 51°16.774 2°52.542 20.7705 0.055586 0.293589 12.720109
2009-07-22 07:32:17 51°16.788 2°52.534 20.7553 0.055586 0.293589 12.720109
2009-07-22 07:32:22 51°16.802 2°52.527 20.7752 0.055586 0.293589 11.292323
2009-07-22 07:32:28 51°16.818 2°52.517 20.7744 0.055586 0.29358 8.750167
2009-07-22 07:32:32 51°16.83 2°52.512 20.771 0.055586 0.293565 11.501267
2009-07-22 07:32:37 51°16.843 2°52.503 20.7759 0.055586 0.29353 8.401926
2009-07-22 07:32:42 51°16.857 2°52.496 20.7726 0.055586 0.293525 9.028759
2009-07-22 07:32:48 51°16.874 2°52.487 20.7787 0.055586 0.293525 9.028759
2009-07-22 07:32:52 51°16.885 2°52.481 20.7807 0.055586 0.293515 10.038657
2009-07-22 07:32:57 51°16.899 2°52.473 20.7775 0.055586 0.293525 8.576047
2009-07-22 07:33:01 51°16.91 2°52.467 20.7815 0.055586 0.29351 7.043788
2009-07-22 07:33:07 51°16.926 2°52.457 20.7754 0.055586 0.293505 8.053686
2009-07-22 07:33:12 51°16.94 2°52.449 20.783 0.055586 0.293505 9.098407
2009-07-22 07:33:17 51°16.953 2°52.441 20.7789 0.055586 0.293505 9.098407
2009-07-22 07:33:22 51°16.967 2°52.432 20.7813 0.055586 0.293491 10.073481
2009-07-22 07:33:27 51°16.98 2°52.424 20.7795 0.055586 0.293481 9.72524
2009-07-22 07:33:32 51°16.994 2°52.415 20.7879 0.055586 0.293486 9.620768
2009-07-22 07:33:36 51°17.005 2°52.409 20.7762 0.055586 0.293496 10.49137
2009-07-22 07:33:42 51°17.021 2°52.398 20.7811 0.055586 0.293486 10.456545
2009-07-22 07:33:47 51°17.034 2°52.389 20.7728 0.055586 0.293486 10.456545
2009-07-22 07:33:52 51°17.048 2°52.381 20.7805 0.055586 0.293491 8.645695
2009-07-22 07:33:57 51°17.062 2°52.372 20.784 0.055586 0.293491 9.028759
2009-07-22 07:34:02 51°17.075 2°52.364 20.7929 0.055586 0.293486 11.77986
2009-07-22 07:34:08 51°17.091 2°52.354 20.7859 0.055586 0.293481 12.824581
2009-07-22 07:34:12 51°17.103 2°52.347 20.7941 0.055586 0.293481 14.217543
2009-07-22 07:34:17 51°17.116 2°52.339 20.7817 0.055586 0.293481 14.217543
2009-07-22 07:34:22 51°17.13 2°52.331 20.7926 0.055586 0.293476 14.217543
2009-07-22 07:34:28 51°17.146 2°52.321 20.7807 0.055586 0.293471 14.322015
2009-07-22 07:34:32 51°17.157 2°52.315 20.7943 0.055586 0.293471 13.172822
2009-07-22 07:34:37 51°17.171 2°52.307 20.7914 0.055586 0.293461 11.466443
2009-07-22 07:34:41 51°17.182 2°52.301 20.7832 0.055586 0.293456 9.168055
2009-07-22 07:34:47 51°17.199 2°52.291 20.7903 0.055586 0.293456 9.168055
2009-07-22 07:34:52 51°17.212 2°52.283 20.7757 0.055586 0.293446 9.133231
2009-07-22 07:34:57 51°17.226 2°52.274 20.7909 0.055586 0.293441 11.988804
2009-07-22 07:35:02 51°17.24 2°52.267 20.7888 0.055586 0.293441 12.162924
2009-07-22 07:35:08 51°17.256 2°52.256 20.7972 0.055586 0.293431 11.501267
2009-07-22 07:35:12 51°17.267 2°52.25 20.7878 0.055586 0.293426 9.481472
2009-07-22 07:35:17 51°17.281 2°52.242 20.7995 0.055586 0.293426 9.481472
2009-07-22 07:35:21 51°17.292 2°52.235 20.8029 0.055586 0.293417 9.55112
2009-07-22 07:35:28 51°17.311 2°52.224 20.7899 0.055586 0.293407 9.794888
2009-07-22 07:35:32 51°17.322 2°52.218 20.7855 0.055586 0.293402 9.655592
2009-07-22 07:35:37 51°17.336 2°52.209 20.7945 0.055586 0.293397 7.217908
2009-07-22 07:35:42 51°17.35 2°52.201 20.7908 0.055586 0.293387 6.939316
2009-07-22 07:35:48 51°17.366 2°52.191 20.8012 0.055586 0.293387 6.939316
2009-07-22 07:35:52 51°17.378 2°52.184 20.8062 0.055586 0.293377 8.192982
2009-07-22 07:35:57 51°17.391 2°52.175 20.8079 0.055586 0.293377 8.924287
2009-07-22 07:36:02 51°17.405 2°52.167 20.8047 0.055586 0.293377 9.028759
2009-07-22 07:36:08 51°17.421 2°52.156 20.8112 0.055586 0.293377 9.377
2009-07-22 07:36:12 51°17.431 2°52.147 20.8105 0.055586 0.293377 8.715343
2009-07-22 07:36:17 51°17.444 2°52.137 20.8048 0.055586 0.293377 8.715343
2009-07-22 07:36:22 51°17.457 2°52.126 20.7935 0.055586 0.293372 8.889463
2009-07-22 07:36:28 51°17.472 2°52.112 20.8003 0.055586 0.293367 9.864537
2009-07-22 07:36:32 51°17.483 2°52.103 20.7962 0.055586 0.293357 10.421721
2009-07-22 07:36:37 51°17.495 2°52.091 20.8011 0.055586 0.293343 8.26263
2009-07-22 07:36:42 51°17.508 2°52.079 20.8037 0.055586 0.293333 6.939316
2009-07-22 07:36:48 51°17.523 2°52.064 20.814 0.055586 0.293333 6.939316
2009-07-22 07:36:52 51°17.533 2°52.055 20.8106 0.055586 0.293333 9.72524
2009-07-22 07:36:57 51°17.545 2°52.041 20.815 0.055586 0.293338 10.003833
2009-07-22 07:37:02 51°17.557 2°52.028 20.7921 0.055586 0.293338 8.227806
2009-07-22 07:37:08 51°17.572 2°52.01 20.8096 0.055586 0.293333 9.098407
2009-07-22 07:37:12 51°17.581 2°51.999 20.8161 0.055586 0.293328 8.750167
2009-07-22 07:37:17 51°17.593 2°51.985 20.7975 0.055586 0.293328 8.750167
2009-07-22 07:37:22 51°17.605 2°51.971 20.8217 0.055586 0.293328 9.934185
2009-07-22 07:37:28 51°17.619 2°51.954 20.8061 0.055586 0.293323 8.297454
2009-07-22 07:37:32 51°17.628 2°51.943 20.804 0.055586 0.293318 6.97414
2009-07-22 07:37:37 51°17.64 2°51.928 20.8172 0.055586 0.293308 7.078612
2009-07-22 07:37:42 51°17.651 2°51.913 20.8212 0.055586 0.293308 8.158158
2009-07-22 07:37:48 51°17.665 2°51.896 20.8137 0.055586 0.293308 8.158158
2009-07-22 07:37:52 51°17.674 2°51.884 20.8165 0.055586 0.293303 7.008964
2009-07-22 07:37:57 51°17.686 2°51.869 20.8235 0.055586 0.293298 9.028759
2009-07-22 07:38:02 51°17.697 2°51.854 20.8257 0.055586 0.293293 9.20288
2009-07-22 07:38:08 51°17.711 2°51.836 20.8092 0.055586 0.293293 9.377
2009-07-22 07:38:12 51°17.721 2°51.824 20.8277 0.055586 0.293288 7.113436
2009-07-22 07:38:17 51°17.732 2°51.809 20.8217 0.055586 0.293288 7.113436
2009-07-22 07:38:22 51°17.744 2°51.794 20.8138 0.055586 0.293278 8.819815
2009-07-22 07:38:28 51°17.757 2°51.775 20.8208 0.055586 0.293264 9.028759
2009-07-22 07:38:32 51°17.766 2°51.763 20.833 0.055586 0.293264 7.008964
2009-07-22 07:38:37 51°17.778 2°51.748 20.8249 0.055586 0.293264 7.008964
2009-07-22 07:38:41 51°17.788 2°51.736 20.8246 0.055586 0.293264 8.297454
2009-07-22 07:38:47 51°17.802 2°51.718 20.8333 0.055586 0.293264 8.297454
2009-07-22 07:38:52 51°17.814 2°51.703 20.8335 0.055586 0.293264 9.063583
2009-07-22 07:38:57 51°17.826 2°51.689 20.8232 0.055586 0.293259 7.252733
2009-07-22 07:39:02 51°17.837 2°51.674 20.839 0.055586 0.293254 7.008964
2009-07-22 07:39:08 51°17.852 2°51.656 20.8264 0.055586 0.293249 7.008964
2009-07-22 07:39:12 51°17.861 2°51.644 20.8329 0.055586 0.293244 7.949214
2009-07-22 07:39:16 51°17.871 2°51.633 20.8262 0.055586 0.293244 7.949214
2009-07-22 07:39:22 51°17.885 2°51.614 20.8232 0.055586 0.293244 7.496501
2009-07-22 07:39:28 51°17.899 2°51.597 20.8274 0.055586 0.293234 7.91439
2009-07-22 07:39:32 51°17.908 2°51.584 20.8409 0.055586 0.293234 7.14826
2009-07-22 07:39:36 51°17.917 2°51.572 20.8334 0.055586 0.293224 7.113436
2009-07-22 07:39:42 51°17.931 2°51.554 20.8365 0.055586 0.293224 8.959111
2009-07-22 07:39:48 51°17.945 2°51.536 20.8256 0.055586 0.293224 8.959111
2009-07-22 07:39:52 51°17.955 2°51.524 20.8362 0.055586 0.293214 9.585944
2009-07-22 07:39:57 51°17.967 2°51.509 20.8316 0.055586 0.293205 9.585944
2009-07-22 07:40:02 51°17.978 2°51.494 20.838 0.055586 0.293205 9.585944
2009-07-22 07:40:08 51°17.993 2°51.476 20.8296 0.055586 0.293205 9.655592
2009-07-22 07:40:12 51°18.002 2°51.464 20.8435 0.055586 0.2932 7.426853
2009-07-22 07:40:17 51°18.014 2°51.449 20.8243 0.055586 0.2932 7.426853
2009-07-22 07:40:22 51°18.026 2°51.434 20.8358 0.055586 0.293195 7.531325
2009-07-22 07:40:27 51°18.038 2°51.419 20.8355 0.055586 0.29319 9.168055
2009-07-22 07:40:32 51°18.05 2°51.404 20.836 0.055586 0.293185 8.43675
2009-07-22 07:40:36 51°18.06 2°51.393 20.8487 0.055586 0.293185 7.392029
2009-07-22 07:40:42 51°18.074 2°51.375 20.8356 0.055586 0.29318 10.282425
2009-07-22 07:40:48 51°18.089 2°51.357 20.8474 0.055586 0.29318 10.282425
2009-07-22 07:40:52 51°18.098 2°51.346 20.8469 0.055586 0.29318 11.048554
2009-07-22 07:40:57 51°18.11 2°51.331 20.838 0.055586 0.293175 11.083378
2009-07-22 07:41:02 51°18.122 2°51.317 20.8537 0.055586 0.29317 9.342176
2009-07-22 07:41:08 51°18.137 2°51.299 20.8505 0.055586 0.293165 7.287557
2009-07-22 07:41:12 51°18.147 2°51.287 20.8504 0.055586 0.293155 7.252733
2009-07-22 07:41:17 51°18.159 2°51.273 20.8589 0.055586 0.293155 7.252733
2009-07-22 07:41:22 51°18.171 2°51.258 20.8523 0.055586 0.293145 7.217908
2009-07-22 07:41:28 51°18.185 2°51.24 20.8536 0.055586 0.293145 7.287557
2009-07-22 07:41:32 51°18.194 2°51.228 20.8573 0.055586 0.29314 7.252733
2009-07-22 07:41:37 51°18.207 2°51.213 20.8389 0.055586 0.293136 7.287557
2009-07-22 07:41:42 51°18.218 2°51.197 20.8547 0.055586 0.293126 13.381766
2009-07-22 07:41:47 51°18.23 2°51.183 20.8515 0.055586 0.293126 13.381766
2009-07-22 07:41:52 51°18.242 2°51.168 20.8621 0.055586 0.293096 12.023628
2009-07-22 07:41:57 51°18.254 2°51.153 20.8643 0.055586 0.293081 8.610871
2009-07-22 07:42:02 51°18.266 2°51.138 20.8596 0.055586 0.293101 7.775093
2009-07-22 07:42:08 51°18.28 2°51.12 20.8462 0.055586 0.293111 10.83961
2009-07-22 07:42:12 51°18.29 2°51.108 20.8561 0.055586 0.293111 11.01373
2009-07-22 07:42:17 51°18.302 2°51.093 20.8555 0.055586 0.293111 11.01373
2009-07-22 07:42:22 51°18.314 2°51.078 20.8613 0.055586 0.293111 9.481472
2009-07-22 07:42:28 51°18.328 2°51.06 20.8684 0.055586 0.293111 10.561018
2009-07-22 07:42:32 51°18.338 2°51.048 20.8628 0.055586 0.293106 10.700314
2009-07-22 07:42:37 51°18.35 2°51.033 20.8631 0.055586 0.293101 9.098407
2009-07-22 07:42:41 51°18.359 2°51.021 20.8666 0.055586 0.293091 8.192982
2009-07-22 07:42:47 51°18.373 2°51.003 20.8566 0.055586 0.293091 8.192982
2009-07-22 07:42:52 51°18.385 2°50.988 20.8658 0.055586 0.293086 7.357205
2009-07-22 07:42:57 51°18.397 2°50.973 20.8618 0.055586 0.293081 7.392029
2009-07-22 07:43:02 51°18.409 2°50.958 20.8714 0.055586 0.293076 7.357205
2009-07-22 07:43:07 51°18.42 2°50.942 20.8586 0.055586 0.293072 7.392029
2009-07-22 07:43:12 51°18.432 2°50.926 20.8678 0.055586 0.293062 7.392029
2009-07-22 07:43:16 51°18.441 2°50.914 20.8644 0.055586 0.293062 7.392029
2009-07-22 07:43:22 51°18.455 2°50.895 20.8671 0.055586 0.293067 10.49137
2009-07-22 07:43:28 51°18.469 2°50.875 20.8693 0.055586 0.293057 9.377
2009-07-22 07:43:32 51°18.478 2°50.863 20.8786 0.055586 0.293037 7.740269
2009-07-22 07:43:37 51°18.489 2°50.847 20.8628 0.055586 0.293032 7.392029
2009-07-22 07:43:42 51°18.501 2°50.831 20.8753 0.055586 0.293032 7.426853
2009-07-22 07:43:47 51°18.512 2°50.814 20.8724 0.055586 0.293032 7.426853
2009-07-22 07:43:52 51°18.524 2°50.799 20.8674 0.055586 0.293032 7.426853
2009-07-22 07:43:57 51°18.535 2°50.782 20.8786 0.055586 0.293027 7.461677
2009-07-22 07:44:02 51°18.546 2°50.766 20.8775 0.055586 0.293017 7.461677
2009-07-22 07:44:07 51°18.558 2°50.75 20.8842 0.055586 0.293008 7.496501
2009-07-22 07:44:12 51°18.569 2°50.734 20.878 0.055586 0.293003 7.461677
2009-07-22 07:44:17 51°18.58 2°50.718 20.8638 0.055586 0.293003 7.461677
2009-07-22 07:44:21 51°18.589 2°50.704 20.8835 0.055586 0.293003 8.645695
2009-07-22 07:44:28 51°18.605 2°50.682 20.8859 0.055586 0.292998 7.670621
2009-07-22 07:44:32 51°18.614 2°50.669 20.8852 0.055688 0.293549 10.003833
2009-07-22 07:44:37 51°18.625 2°50.653 20.8647 0.055688 0.293549 11.222675
2009-07-22 07:44:42 51°18.637 2°50.637 20.8792 0.055688 0.293549 7.670621
2009-07-22 07:44:47 51°18.648 2°50.62 20.8818 0.055688 0.293549 7.670621
2009-07-22 07:44:52 51°18.659 2°50.604 20.8799 0.055688 0.293549 7.531325
2009-07-22 07:44:56 51°18.669 2°50.591 20.8907 0.055586 0.292983 7.566149
2009-07-22 07:45:02 51°18.682 2°50.572 20.887 0.055688 0.293539 7.566149
2009-07-22 07:45:07 51°18.693 2°50.555 20.8956 0.055586 0.292983 9.168055
2009-07-22 07:45:12 51°18.705 2°50.539 20.8723 0.055586 0.292973 11.849508
2009-07-22 07:45:17 51°18.716 2°50.523 20.8851 0.055586 0.292973 11.849508
2009-07-22 07:45:22 51°18.727 2°50.506 20.891 0.055688 0.293524 11.77986
2009-07-22 07:45:27 51°18.738 2°50.49 20.887 0.055586 0.292963 9.55112
2009-07-22 07:45:32 51°18.75 2°50.473 20.8929 0.055688 0.29352 7.600973
2009-07-22 07:45:37 51°18.761 2°50.457 20.8838 0.055688 0.293515 7.635797
2009-07-22 07:45:42 51°18.772 2°50.441 20.8937 0.055688 0.29351 8.123334
2009-07-22 07:45:48 51°18.786 2°50.421 20.8842 0.055688 0.29351 8.123334
2009-07-22 07:45:52 51°18.795 2°50.408 20.8882 0.055688 0.293505 7.809917
2009-07-22 07:45:57 51°18.807 2°50.392 20.8959 0.055688 0.2935 7.635797
2009-07-22 07:46:01 51°18.816 2°50.379 20.8969 0.055688 0.293495 7.635797
2009-07-22 07:46:07 51°18.829 2°50.359 20.8974 0.055688 0.293485 10.804786
2009-07-22 07:46:12 51°18.841 2°50.343 20.8811 0.055688 0.29347 7.879566
2009-07-22 07:46:17 51°18.852 2°50.327 20.8971 0.055688 0.29347 7.879566
2009-07-22 07:46:22 51°18.863 2°50.31 20.9074 0.055688 0.293465 8.332278
2009-07-22 07:46:27 51°18.875 2°50.294 20.8903 0.055688 0.293451 8.819815
2009-07-22 07:46:32 51°18.886 2°50.277 20.9053 0.055688 0.293451 10.038657
2009-07-22 07:46:37 51°18.898 2°50.261 20.9017 0.055688 0.293431 7.775093
2009-07-22 07:46:42 51°18.909 2°50.244 20.9098 0.055688 0.293436 8.576047
2009-07-22 07:46:48 51°18.923 2°50.225 20.9058 0.055688 0.293436 8.576047
2009-07-22 07:46:52 51°18.932 2°50.212 20.8912 0.055688 0.293436 7.809917
2009-07-22 07:46:57 51°18.943 2°50.196 20.8933 0.055688 0.293421 7.91439
2009-07-22 07:47:02 51°18.955 2°50.18 20.8967 0.055688 0.293406 7.809917
2009-07-22 07:47:08 51°18.969 2°50.161 20.9138 0.055688 0.293391 7.809917
2009-07-22 07:47:12 51°18.978 2°50.148 20.9134 0.055688 0.293406 7.809917
2009-07-22 07:47:17 51°18.99 2°50.132 20.921 0.055688 0.293406 7.809917
2009-07-22 07:47:22 51°19.002 2°50.116 20.9078 0.055688 0.293411 7.809917
2009-07-22 07:47:28 51°19.015 2°50.096 20.9135 0.055688 0.293411 8.576047
2009-07-22 07:47:32 51°19.025 2°50.084 20.8927 0.055688 0.293401 10.177953
2009-07-22 07:47:37 51°19.036 2°50.067 20.9182 0.055688 0.293391 8.297454
2009-07-22 07:47:41 51°19.046 2°50.055 20.9022 0.055688 0.293387 7.775093
2009-07-22 07:47:47 51°19.06 2°50.036 20.9142 0.055688 0.293387 7.775093
2009-07-22 07:47:52 51°19.072 2°50.02 20.9067 0.055688 0.293396 7.879566
2009-07-22 07:47:57 51°19.083 2°50.004 20.9179 0.055688 0.293396 7.879566
2009-07-22 07:48:02 51°19.095 2°49.988 20.9214 0.055688 0.293382 7.879566
2009-07-22 07:48:08 51°19.109 2°49.969 20.923 0.055688 0.293377 7.91439
2009-07-22 07:48:12 51°19.118 2°49.956 20.9129 0.055688 0.293377 8.26263
2009-07-22 07:48:16 51°19.127 2°49.943 20.9225 0.055688 0.293377 8.26263
2009-07-22 07:48:22 51°19.141 2°49.923 20.9227 0.055688 0.293377 11.083378
2009-07-22 07:48:28 51°19.155 2°49.905 20.9121 0.055688 0.293372 8.227806
2009-07-22 07:48:32 51°19.164 2°49.891 20.9167 0.055688 0.293362 7.91439
2009-07-22 07:48:37 51°19.176 2°49.875 20.9321 0.055688 0.293347 8.332278
2009-07-22 07:48:42 51°19.188 2°49.86 20.9073 0.055688 0.293352 7.91439
2009-07-22 07:48:48 51°19.202 2°49.841 20.9144 0.055688 0.293352 7.91439
2009-07-22 07:48:52 51°19.212 2°49.828 20.9159 0.055688 0.293357 8.192982
2009-07-22 07:48:57 51°19.224 2°49.812 20.9208 0.055688 0.293357 11.814684
2009-07-22 07:49:02 51°19.236 2°49.796 20.9324 0.055688 0.293342 12.058452
2009-07-22 07:49:08 51°19.25 2°49.776 20.9338 0.055688 0.293342 12.058452
2009-07-22 07:49:12 51°19.26 2°49.764 20.9161 0.055688 0.293328 12.058452
2009-07-22 07:49:17 51°19.271 2°49.747 20.9275 0.055688 0.293328 12.058452
2009-07-22 07:49:22 51°19.283 2°49.731 20.9214 0.055688 0.293328 12.754933
2009-07-22 07:49:27 51°19.295 2°49.714 20.9367 0.055688 0.293328 11.77986
2009-07-22 07:49:32 51°19.307 2°49.699 20.9274 0.055688 0.293323 10.66549
2009-07-22 07:49:37 51°19.319 2°49.682 20.9265 0.055688 0.293318 10.282425
2009-07-22 07:49:42 51°19.331 2°49.666 20.9297 0.055688 0.293318 10.561018
2009-07-22 07:49:47 51°19.343 2°49.65 20.9337 0.055688 0.293318 10.561018
2009-07-22 07:49:52 51°19.354 2°49.634 20.9327 0.055688 0.293323 10.386897
2009-07-22 07:49:56 51°19.364 2°49.621 20.9261 0.055688 0.293313 10.386897
2009-07-22 07:50:02 51°19.378 2°49.601 20.9352 0.055688 0.293313 10.212777
2009-07-22 07:50:08 51°19.392 2°49.582 20.9221 0.055688 0.293308 8.123334
2009-07-22 07:50:12 51°19.401 2°49.568 20.9349 0.055688 0.293303 10.735138
2009-07-22 07:50:17 51°19.413 2°49.552 20.929 0.055688 0.293303 10.735138
2009-07-22 07:50:22 51°19.425 2°49.536 20.9388 0.055688 0.293298 10.944082
2009-07-22 07:50:28 51°19.439 2°49.516 20.9394 0.055688 0.293293 10.003833
2009-07-22 07:50:32 51°19.449 2°49.503 20.9339 0.055688 0.293293 8.227806
2009-07-22 07:50:37 51°19.461 2°49.487 20.9409 0.055688 0.293293 10.83961
2009-07-22 07:50:42 51°19.472 2°49.471 20.9449 0.055688 0.293288 11.710211
2009-07-22 07:50:48 51°19.487 2°49.452 20.9421 0.055688 0.293288 11.710211
2009-07-22 07:50:52 51°19.496 2°49.439 20.9491 0.055688 0.293293 8.471574
2009-07-22 07:50:57 51°19.508 2°49.422 20.9516 0.055688 0.293283 8.227806
2009-07-22 07:51:01 51°19.517 2°49.409 20.9523 0.055688 0.293278 8.43675
2009-07-22 07:51:08 51°19.533 2°49.386 20.9387 0.055688 0.293259 11.222675
2009-07-22 07:51:12 51°19.542 2°49.373 20.9489 0.055688 0.293249 8.227806
2009-07-22 07:51:16 51°19.552 2°49.359 20.9404 0.055688 0.293249 8.227806
2009-07-22 07:51:23 51°19.568 2°49.336 20.9413 0.055688 0.293254 8.227806
2009-07-22 07:51:27 51°19.577 2°49.323 20.9544 0.055688 0.293264 8.227806
2009-07-22 07:51:32 51°19.589 2°49.306 20.9497 0.055688 0.293259 8.227806
2009-07-22 07:51:36 51°19.598 2°49.293 20.9394 0.055688 0.293254 8.26263
2009-07-22 07:51:41 51°19.61 2°49.276 20.9441 0.055688 0.293239 8.26263
2009-07-22 07:51:47 51°19.624 2°49.256 20.9473 0.055688 0.293239 8.26263
2009-07-22 07:51:52 51°19.635 2°49.239 20.9475 0.055688 0.293234 8.26263
2009-07-22 07:51:56 51°19.644 2°49.226 20.9604 0.055688 0.293234 8.297454
2009-07-22 07:52:03 51°19.66 2°49.202 20.9572 0.055688 0.293239 8.610871
2009-07-22 07:52:08 51°19.672 2°49.185 20.9508 0.055688 0.293234 8.367102
2009-07-22 07:52:12 51°19.681 2°49.173 20.9462 0.055688 0.293229 8.750167
2009-07-22 07:52:17 51°19.692 2°49.155 20.9697 0.055688 0.293229 8.750167
2009-07-22 07:52:23 51°19.706 2°49.136 20.9595 0.055688 0.293229 8.43675
2009-07-22 07:52:28 51°19.718 2°49.119 20.9604 0.055688 0.293214 8.367102
2009-07-22 07:52:32 51°19.727 2°49.105 20.9704 0.055688 0.2932 8.889463
2009-07-22 07:52:37 51°19.738 2°49.089 20.9651 0.055688 0.293205 8.43675
2009-07-22 07:52:43 51°19.752 2°49.068 20.9601 0.055688 0.293195 8.401926
2009-07-22 07:52:48 51°19.763 2°49.051 20.9673 0.055688 0.293195 8.401926
2009-07-22 07:52:52 51°19.772 2°49.038 20.9678 0.055688 0.2932 8.401926
2009-07-22 07:52:57 51°19.784 2°49.02 20.9713 0.055688 0.2932 12.30222
2009-07-22 07:53:03 51°19.797 2°49 20.9642 0.055688 0.293195 13.103174
2009-07-22 07:53:08 51°19.809 2°48.983 20.9754 0.055688 0.293185 8.889463
2009-07-22 07:53:12 51°19.818 2°48.969 20.9693 0.055688 0.29318 8.471574
2009-07-22 07:53:17 51°19.829 2°48.952 20.9709 0.055688 0.29318 8.471574
2009-07-22 07:53:21 51°19.839 2°48.938 20.953 0.055688 0.293185 8.43675
2009-07-22 07:53:28 51°19.855 2°48.914 20.9693 0.055688 0.29318 9.133231
2009-07-22 07:53:32 51°19.864 2°48.9 20.9745 0.055688 0.293175 8.680519
2009-07-22 07:53:37 51°19.875 2°48.884 20.9821 0.055688 0.29317 8.541223
2009-07-22 07:53:41 51°19.884 2°48.87 20.9654 0.055688 0.29316 8.506398
2009-07-22 07:53:47 51°19.898 2°48.849 20.9725 0.055688 0.29316 8.506398
2009-07-22 07:53:52 51°19.91 2°48.833 20.9608 0.055688 0.293151 8.680519
2009-07-22 07:53:57 51°19.921 2°48.816 20.9805 0.055688 0.293155 9.690416
2009-07-22 07:54:01 51°19.93 2°48.802 20.9742 0.055688 0.293151 8.680519
2009-07-22 07:54:07 51°19.944 2°48.782 20.976 0.055688 0.293146 10.073481
2009-07-22 07:54:12 51°19.956 2°48.764 20.9664 0.055688 0.293136 9.063583
2009-07-22 07:54:17 51°19.967 2°48.747 20.9804 0.055688 0.293136 9.063583
2009-07-22 07:54:23 51°19.981 2°48.727 20.9717 0.055688 0.293136 9.585944
2009-07-22 07:54:28 51°19.992 2°48.71 20.9853 0.055688 0.293141 8.750167
2009-07-22 07:54:32 51°20.002 2°48.696 20.9784 0.055688 0.293126 8.680519
2009-07-22 07:54:37 51°20.013 2°48.679 20.9798 0.055688 0.293126 9.55112
2009-07-22 07:54:43 51°20.027 2°48.659 20.9746 0.055688 0.293121 8.610871
2009-07-22 07:54:48 51°20.038 2°48.641 20.9756 0.055688 0.293121 8.610871
2009-07-22 07:54:52 51°20.047 2°48.628 20.9698 0.055688 0.293116 8.610871
2009-07-22 07:54:57 51°20.059 2°48.61 20.9822 0.055688 0.293116 8.680519
2009-07-22 07:55:03 51°20.073 2°48.59 20.9962 0.055688 0.293106 8.715343
2009-07-22 07:55:08 51°20.084 2°48.573 20.9896 0.055688 0.293111 8.750167
2009-07-22 07:55:12 51°20.093 2°48.559 20.9836 0.055688 0.293101 8.715343
2009-07-22 07:55:17 51°20.105 2°48.542 20.9884 0.055688 0.293101 8.715343
2009-07-22 07:55:21 51°20.114 2°48.528 20.9909 0.055688 0.293101 10.352073
2009-07-22 07:55:28 51°20.13 2°48.504 20.9926 0.055688 0.293092 9.272528
2009-07-22 07:55:32 51°20.139 2°48.49 20.9946 0.055688 0.293097 8.784991
2009-07-22 07:55:37 51°20.15 2°48.473 20.9897 0.055688 0.293082 9.307352
2009-07-22 07:55:41 51°20.159 2°48.459 20.9844 0.055688 0.293072 12.337044
2009-07-22 07:55:48 51°20.175 2°48.435 20.9925 0.055688 0.293072 12.337044
2009-07-22 07:55:52 51°20.184 2°48.421 21.0019 0.055688 0.293062 11.710211
2009-07-22 07:55:57 51°20.196 2°48.404 20.9993 0.055688 0.293062 11.919156
2009-07-22 07:56:01 51°20.205 2°48.39 21.0023 0.055688 0.293062 10.421721
2009-07-22 07:56:07 51°20.219 2°48.369 20.992 0.055688 0.293057 11.222675
2009-07-22 07:56:12 51°20.23 2°48.352 20.9896 0.055688 0.293052 11.292323
2009-07-22 07:56:17 51°20.242 2°48.335 20.999 0.055688 0.293052 11.292323
2009-07-22 07:56:23 51°20.256 2°48.314 20.9941 0.055688 0.293047 9.028759
2009-07-22 07:56:28 51°20.267 2°48.297 20.9922 0.055688 0.293042 9.620768
2009-07-22 07:56:32 51°20.276 2°48.284 20.9941 0.055688 0.293047 8.819815
2009-07-22 07:56:37 51°20.287 2°48.266 20.9969 0.055688 0.293047 8.819815
2009-07-22 07:56:43 51°20.301 2°48.246 20.9859 0.055688 0.293042 8.924287
2009-07-22 07:56:48 51°20.312 2°48.229 21.0064 0.055688 0.293042 8.924287
2009-07-22 07:56:52 51°20.321 2°48.215 20.9995 0.055688 0.293033 9.934185
2009-07-22 07:56:57 51°20.333 2°48.198 21.0081 0.055688 0.293038 8.889463
2009-07-22 07:57:03 51°20.346 2°48.177 21.0011 0.055688 0.293038 8.924287
2009-07-22 07:57:08 51°20.358 2°48.16 21.0004 0.055688 0.293033 9.585944
2009-07-22 07:57:12 51°20.367 2°48.146 21.0147 0.055688 0.293023 9.655592
2009-07-22 07:57:17 51°20.379 2°48.129 21.0143 0.055688 0.293023 9.655592
2009-07-22 07:57:23 51°20.392 2°48.109 20.9974 0.055688 0.293018 8.959111
2009-07-22 07:57:28 51°20.404 2°48.092 21.0108 0.055688 0.293023 10.177953
2009-07-22 07:57:32 51°20.413 2°48.078 21.0116 0.055688 0.293023 9.272528
2009-07-22 07:57:37 51°20.424 2°48.061 21.0168 0.055688 0.293013 8.959111
2009-07-22 07:57:43 51°20.438 2°48.041 21.0135 0.055688 0.293008 8.993935
2009-07-22 07:57:48 51°20.449 2°48.023 21.0107 0.055688 0.293008 8.993935
2009-07-22 07:57:52 51°20.458 2°48.01 21.0175 0.055688 0.292993 8.993935
2009-07-22 07:57:57 51°20.47 2°47.992 21.0117 0.055688 0.292993 9.028759
2009-07-22 07:58:01 51°20.479 2°47.979 21.0036 0.055688 0.292998 10.561018
2009-07-22 07:58:08 51°20.495 2°47.955 21.0294 0.055688 0.292989 11.153027
2009-07-22 07:58:12 51°20.504 2°47.942 21.0215 0.055688 0.292993 11.814684
2009-07-22 07:58:17 51°20.516 2°47.925 21.0085 0.055688 0.292993 11.814684
2009-07-22 07:58:22 51°20.527 2°47.908 21.0295 0.055688 0.292993 9.934185
2009-07-22 07:58:28 51°20.541 2°47.888 21.0102 0.055688 0.292984 9.028759
2009-07-22 07:58:32 51°20.55 2°47.874 21.02 0.055688 0.292974 10.108305
2009-07-22 07:58:37 51°20.562 2°47.857 21.013 0.055688 0.292964 9.098407
2009-07-22 07:58:42 51°20.573 2°47.84 21.0294 0.055688 0.292969 9.063583
2009-07-22 07:58:48 51°20.587 2°47.82 21.0269 0.055688 0.292969 9.063583
2009-07-22 07:58:52 51°20.596 2°47.806 21.0215 0.055688 0.292949 9.098407
2009-07-22 07:58:57 51°20.607 2°47.789 21.0273 0.055688 0.292949 9.098407
2009-07-22 07:59:02 51°20.618 2°47.772 21.0235 0.055688 0.292954 9.133231
2009-07-22 07:59:08 51°20.632 2°47.752 21.0122 0.055688 0.292944 9.098407
2009-07-22 07:59:12 51°20.641 2°47.738 21.039 0.055688 0.292939 9.272528
2009-07-22 07:59:17 51°20.653 2°47.722 21.0432 0.055688 0.292939 9.272528
2009-07-22 07:59:22 51°20.665 2°47.705 21.0384 0.055688 0.292939 9.133231
2009-07-22 07:59:28 51°20.679 2°47.685 21.0407 0.055688 0.292944 9.168055
2009-07-22 07:59:32 51°20.688 2°47.672 21.0386 0.055688 0.292939 9.272528
2009-07-22 07:59:37 51°20.7 2°47.655 21.033 0.055688 0.292935 10.282425
2009-07-22 07:59:42 51°20.711 2°47.639 21.0396 0.055688 0.292935 13.103174
2009-07-22 07:59:48 51°20.725 2°47.619 21.0368 0.055688 0.292935 13.103174
2009-07-22 07:59:52 51°20.735 2°47.605 21.0397 0.055688 0.29293 10.386897
2009-07-22 07:59:57 51°20.747 2°47.588 21.0391 0.055688 0.29293 9.168055
2009-07-22 08:00:02 51°20.758 2°47.571 21.0352 0.055688 0.29292 10.49137
2009-07-22 08:00:08 51°20.773 2°47.552 21.0415 0.055688 0.29291 9.237704
2009-07-22 08:00:12 51°20.782 2°47.538 21.0341 0.055688 0.29291 11.466443
2009-07-22 08:00:17 51°20.794 2°47.521 21.0389 0.055688 0.29291 11.466443
2009-07-22 08:00:22 51°20.805 2°47.504 21.0428 0.055688 0.29291 12.093276
2009-07-22 08:00:28 51°20.82 2°47.484 21.0371 0.055688 0.2929 12.789757
2009-07-22 08:00:32 51°20.829 2°47.47 21.0441 0.055688 0.292895 13.207646
2009-07-22 08:00:37 51°20.841 2°47.453 21.0436 0.055688 0.292886 17.038292
2009-07-22 08:00:42 51°20.852 2°47.436 21.0388 0.055688 0.292886 12.441517
2009-07-22 08:00:48 51°20.866 2°47.415 21.0397 0.055688 0.292886 12.441517
2009-07-22 08:00:52 51°20.875 2°47.401 21.0543 0.055688 0.292871 13.451414
2009-07-22 08:00:57 51°20.887 2°47.384 21.0486 0.055688 0.292871 10.177953
2009-07-22 08:01:02 51°20.898 2°47.366 21.0544 0.055688 0.292881 9.411824
2009-07-22 08:01:08 51°20.913 2°47.345 21.0355 0.055688 0.292881 12.371868
2009-07-22 08:01:12 51°20.922 2°47.331 21.0443 0.055688 0.292881 12.859405
2009-07-22 08:01:17 51°20.934 2°47.314 21.0545 0.055688 0.292881 12.859405
2009-07-22 08:01:22 51°20.946 2°47.297 21.0605 0.055791 0.293431 11.257499
2009-07-22 08:01:28 51°20.96 2°47.276 21.0575 0.055791 0.293431 9.585944
2009-07-22 08:01:32 51°20.969 2°47.262 21.0554 0.055791 0.293431 9.55112
2009-07-22 08:01:37 51°20.981 2°47.245 21.0598 0.055791 0.293421 9.446648
2009-07-22 08:01:42 51°20.993 2°47.228 20.3997 0.056718 0.298279 12.232572
2009-07-22 08:01:48 51°21.007 2°47.208 19.3937 0.056718 0.298279 12.232572
2009-07-22 08:01:52 51°21.017 2°47.195 19.1849 0.152532 0.829482 14.809552
2009-07-22 08:01:57 51°21.029 2°47.178 18.9938 0.168177 0.918859 15.540857
2009-07-22 08:02:02 51°21.04 2°47.16 18.8023 1.480936 9.321856 14.356839
2009-07-22 08:02:08 51°21.055 2°47.141 18.7491 1.784551 11.449077 11.327147
2009-07-22 08:02:12 51°21.064 2°47.126 18.681 2.56136 17.11873 9.864537
2009-07-22 08:02:17 51°21.076 2°47.11 18.6161 2.56136 17.11873 9.864537
2009-07-22 08:02:22 51°21.088 2°47.092 18.5841 3.395871 23.590997 9.411824
2009-07-22 08:02:28 51°21.102 2°47.072 18.557 4.209243 30.256542 9.272528
2009-07-22 08:02:32 51°21.111 2°47.058 18.5153 4.469751 32.63286 8.993935
2009-07-22 08:02:37 51°21.123 2°47.04 18.5145 4.513983 33.215439 8.645695
2009-07-22 08:02:42 51°21.135 2°47.022 18.4996 4.554376 33.712649 8.43675
2009-07-22 08:02:48 51°21.149 2°47.002 18.4537 4.554376 33.712649 8.43675
2009-07-22 08:02:52 51°21.159 2°46.988 18.4355 4.568084 33.919683 8.332278
2009-07-22 08:02:57 51°21.171 2°46.971 18.4225 4.569539 34.01803 8.227806
2009-07-22 08:03:02 51°21.182 2°46.954 18.4406 4.575771 34.134126 8.158158
2009-07-22 08:03:08 51°21.197 2°46.934 18.4239 4.577744 34.200058 8.123334
2009-07-22 08:03:12 51°21.206 2°46.921 18.4047 4.580756 34.257904 8.08851
2009-07-22 08:03:17 51°21.218 2°46.904 18.3973 4.580756 34.257904 8.08851
2009-07-22 08:03:22 51°21.23 2°46.887 18.3893 4.573592 34.233146 8.053686
2009-07-22 08:03:28 51°21.245 2°46.866 18.3773 4.579511 34.310307 8.053686
2009-07-22 08:03:32 51°21.254 2°46.853 18.3729 4.582108 34.357719 8.018862
2009-07-22 08:03:37 51°21.266 2°46.837 18.3624 4.582108 34.373506 8.018862
2009-07-22 08:03:42 51°21.278 2°46.819 18.3448 4.581901 34.389539 7.949214
2009-07-22 08:03:48 51°21.293 2°46.799 18.3383 4.581901 34.389539 7.949214
2009-07-22 08:03:52 51°21.302 2°46.785 18.3436 4.582005 34.403595 7.949214
2009-07-22 08:03:57 51°21.314 2°46.769 18.3313 4.582109 34.414363 7.949214
2009-07-22 08:04:02 51°21.326 2°46.753 18.3315 4.578994 34.399362 7.91439
2009-07-22 08:04:08 51°21.34 2°46.732 18.3226 4.575464 34.380198 7.91439
2009-07-22 08:04:12 51°21.35 2°46.719 18.3174 4.577021 34.401233 7.879566
2009-07-22 08:04:17 51°21.362 2°46.702 18.317 4.577021 34.401233 7.879566
2009-07-22 08:04:22 51°21.374 2°46.685 18.3057 4.580448 34.443314 7.879566
2009-07-22 08:04:28 51°21.388 2°46.665 18.2999 4.583667 34.479046 7.879566
2009-07-22 08:04:32 51°21.398 2°46.652 18.2949 4.583148 34.483943 7.844741
2009-07-22 08:04:37 51°21.41 2°46.635 18.2903 4.58346 34.49585 7.879566
2009-07-22 08:04:42 51°21.421 2°46.618 18.2846 4.580241 34.474005 7.879566
2009-07-22 08:04:48 51°21.435 2°46.598 18.2751 4.580241 34.474005 7.879566
2009-07-22 08:04:52 51°21.445 2°46.584 18.2766 4.580345 34.480847 7.844741
2009-07-22 08:04:57 51°21.457 2°46.568 18.279 4.577853 34.467117 7.879566
2009-07-22 08:05:02 51°21.469 2°46.551 18.2756 4.579411 34.488881 7.879566
2009-07-22 08:05:08 51°21.483 2°46.531 18.2548 4.579826 34.497696 7.879566
2009-07-22 08:05:12 51°21.493 2°46.518 18.2595 4.580969 34.514643 7.91439
2009-07-22 08:05:17 51°21.504 2°46.5 18.2501 4.580969 34.514643 7.91439
2009-07-22 08:05:22 51°21.516 2°46.484 18.2402 4.578788 34.500882 7.91439
2009-07-22 08:05:28 51°21.53 2°46.464 18.2447 4.577023 34.490626 7.91439
2009-07-22 08:05:32 51°21.54 2°46.45 18.2356 4.576088 34.486719 7.949214
2009-07-22 08:05:37 51°21.552 2°46.434 18.2347 4.579931 34.525149 7.984038
2009-07-22 08:05:42 51°21.564 2°46.417 18.2279 4.576192 34.49889 8.018862
2009-07-22 08:05:48 51°21.578 2°46.397 18.2289 4.576192 34.49889 8.018862
2009-07-22 08:05:52 51°21.587 2°46.384 18.2199 4.580658 34.541934 8.053686
2009-07-22 08:05:57 51°21.599 2°46.367 18.2175 4.579723 34.540693 8.08851
2009-07-22 08:06:02 51°21.611 2°46.351 18.2112 4.578373 34.534609 8.123334
2009-07-22 08:06:08 51°21.625 2°46.331 18.21 4.576401 34.523924 8.158158
2009-07-22 08:06:12 51°21.635 2°46.318 18.2039 4.578166 34.544174 8.192982
2009-07-22 08:06:17 51°21.646 2°46.301 18.199 4.578166 34.544174 8.192982
2009-07-22 08:06:22 51°21.659 2°46.285 18.2007 4.574428 34.515898 8.26263
2009-07-22 08:06:28 51°21.673 2°46.265 18.2002 4.57557 34.530217 8.297454
2009-07-22 08:06:32 51°21.682 2°46.251 18.1933 4.576193 34.540149 8.367102
2009-07-22 08:06:37 51°21.694 2°46.235 18.192 4.57069 34.498268 8.401926
2009-07-22 08:06:42 51°21.705 2°46.219 18.1914 4.57557 34.54421 8.43675
2009-07-22 08:06:48 51°21.72 2°46.2 18.1849 4.57557 34.54421 8.43675
2009-07-22 08:06:52 51°21.729 2°46.187 18.1839 4.57204 34.517676 8.506398
2009-07-22 08:06:57 51°21.741 2°46.17 18.1814 4.569963 34.503438 8.576047
2009-07-22 08:07:02 51°21.753 2°46.154 18.1806 4.57204 34.524339 8.610871
2009-07-22 08:07:08 51°21.767 2°46.134 18.1751 4.573078 34.535792 8.680519
2009-07-22 08:07:12 51°21.777 2°46.121 18.1737 4.569859 34.51122 8.750167
2009-07-22 08:07:17 51°21.789 2°46.104 18.1772 4.569859 34.51122 8.750167
2009-07-22 08:07:22 51°21.801 2°46.088 18.1745 4.568406 34.50225 8.784991
2009-07-22 08:07:28 51°21.815 2°46.067 18.1739 4.563422 34.46274 8.819815
2009-07-22 08:07:32 51°21.825 2°46.054 18.1724 4.561137 34.446738 8.889463
2009-07-22 08:07:37 51°21.837 2°46.038 18.1674 4.567575 34.503216 8.924287
2009-07-22 08:07:42 51°21.849 2°46.021 18.1702 4.573909 34.560171 8.993935
2009-07-22 08:07:48 51°21.863 2°46.001 18.1623 4.573909 34.560171 8.993935
2009-07-22 08:07:52 51°21.873 2°45.987 18.1589 4.574844 34.570087 9.028759
2009-07-22 08:07:57 51°21.885 2°45.971 18.1582 4.573079 34.556475 9.098407
2009-07-22 08:08:02 51°21.897 2°45.954 18.1636 4.571729 34.546381 9.133231
2009-07-22 08:08:08 51°21.911 2°45.934 18.1564 4.571002 34.541561 9.20288
2009-07-22 08:08:12 51°21.92 2°45.92 18.1538 4.571729 34.551054 9.237704
2009-07-22 08:08:17 51°21.932 2°45.903 18.1563 4.571729 34.551054 9.237704
2009-07-22 08:08:22 51°21.944 2°45.887 18.1542 4.572041 34.555695 9.272528
2009-07-22 08:08:28 51°21.958 2°45.866 18.1506 4.570898 34.549361 9.307352
2009-07-22 08:08:32 51°21.968 2°45.853 18.1469 4.571002 34.551576 9.307352
2009-07-22 08:08:37 51°21.98 2°45.836 18.1511 4.569756 34.542357 9.377
2009-07-22 08:08:42 51°21.992 2°45.819 18.1484 4.574429 34.58528 9.377
2009-07-22 08:08:48 51°22.006 2°45.798 18.144 4.574429 34.58528 9.377
2009-07-22 08:08:52 51°22.015 2°45.785 18.1464 4.573494 34.5787 9.411824
2009-07-22 08:08:57 51°22.027 2°45.768 18.1439 4.573702 34.582465 9.446648
2009-07-22 08:09:03 51°22.041 2°45.747 18.1343 4.572871 34.577432 9.446648
2009-07-22 08:09:08 51°22.053 2°45.73 18.1411 4.572456 34.57525 9.481472
2009-07-22 08:09:12 51°22.063 2°45.717 18.1346 4.572975 34.579649 9.516296
2009-07-22 08:09:17 51°22.075 2°45.701 18.1348 4.572975 34.579649 9.516296
2009-07-22 08:09:22 51°22.086 2°45.684 18.142 4.54847 34.374103 9.55112
2009-07-22 08:09:28 51°22.101 2°45.665 18.1326 4.568614 34.546039 9.55112
2009-07-22 08:09:32 51°22.11 2°45.651 18.1282 4.569133 34.553111 9.585944
2009-07-22 08:09:37 51°22.122 2°45.635 18.1269 4.568199 34.548533 9.620768
2009-07-22 08:09:42 51°22.134 2°45.618 18.1317 4.568095 34.54899 9.655592
2009-07-22 08:09:48 51°22.148 2°45.598 18.122 4.568095 34.54899 9.655592
2009-07-22 08:09:52 51°22.157 2°45.584 18.125 4.568095 34.550327 9.72524
2009-07-22 08:09:57 51°22.169 2°45.568 18.125 4.568407 34.553635 9.690416
2009-07-22 08:10:02 51°22.181 2°45.551 18.1248 4.568199 34.55388 9.72524
2009-07-22 08:10:08 51°22.195 2°45.531 18.1252 4.570068 34.572397 9.760064
2009-07-22 08:10:12 51°22.205 2°45.518 18.1163 4.569653 34.570883 9.794888
2009-07-22 08:10:17 51°22.217 2°45.501 18.1186 4.569653 34.570883 9.794888
2009-07-22 08:10:22 51°22.228 2°45.485 18.1187 4.569964 34.575531 9.794888
2009-07-22 08:10:28 51°22.243 2°45.465 18.1127 4.568718 34.566305 9.829713
2009-07-22 08:10:32 51°22.252 2°45.452 18.1137 4.568615 34.566763 9.864537
2009-07-22 08:10:37 51°22.264 2°45.436 18.1114 4.569757 34.577785 9.864537
2009-07-22 08:10:42 51°22.275 2°45.418 18.1119 4.568511 34.567221 9.864537
2009-07-22 08:10:48 51°22.29 2°45.398 18.1119 4.568511 34.567221 9.864537
2009-07-22 08:10:52 51°22.299 2°45.384 18.1106 4.568718 34.570319 9.934185
2009-07-22 08:10:57 51°22.311 2°45.368 18.1056 4.567888 34.565283 9.969009
2009-07-22 08:11:02 51°22.322 2°45.35 18.1053 4.568511 34.572573 9.969009
2009-07-22 08:11:08 51°22.336 2°45.33 18.0995 4.566434 34.556971 10.003833
2009-07-22 08:11:12 51°22.346 2°45.316 18.1001 4.567265 34.565353 10.003833
2009-07-22 08:11:17 51°22.358 2°45.3 18.0967 4.567265 34.565353 10.003833
2009-07-22 08:11:22 51°22.369 2°45.283 18.0983 4.564773 34.54489 10.038657
2009-07-22 08:11:28 51°22.383 2°45.263 18.0942 4.568303 34.575497 10.038657
2009-07-22 08:11:32 51°22.393 2°45.249 18.0937 4.568199 34.576625 10.073481
2009-07-22 08:11:37 51°22.405 2°45.233 18.0941 4.566019 34.560809 10.073481
2009-07-22 08:11:42 51°22.417 2°45.216 18.0928 4.567265 34.574055 10.108305
2009-07-22 08:11:48 51°22.431 2°45.196 18.091 4.567265 34.574055 10.108305
2009-07-22 08:11:52 51°22.44 2°45.183 18.0923 4.567265 34.576733 10.108305
2009-07-22 08:11:57 51°22.452 2°45.165 18.0905 4.565915 34.565952 10.143129
2009-07-22 08:12:02 51°22.464 2°45.148 18.0903 4.372299 32.931568 10.143129
2009-07-22 08:12:08 51°22.478 2°45.128 18.0888 4.23251 31.75886 10.177953
2009-07-22 08:12:12 51°22.487 2°45.115 18.0882 4.569446 34.599922 10.212777
2009-07-22 08:12:17 51°22.499 2°45.098 18.0888 4.569446 34.599922 10.212777
2009-07-22 08:12:22 51°22.511 2°45.081 18.0849 4.569238 34.59883 10.212777
2009-07-22 08:12:28 51°22.525 2°45.061 18.0877 4.568927 34.597527 10.247601
2009-07-22 08:12:32 51°22.534 2°45.048 18.0853 4.568927 34.599538 10.247601
2009-07-22 08:12:37 51°22.546 2°45.03 18.0866 4.568719 34.598446 10.282425
2009-07-22 08:12:42 51°22.558 2°45.014 18.0809 4.568719 34.599117 10.282425
2009-07-22 08:12:48 51°22.572 2°44.994 18.0782 4.568719 34.599117 10.282425
2009-07-22 08:12:52 51°22.582 2°44.981 18.0778 4.568615 34.598906 10.282425
2009-07-22 08:12:57 51°22.593 2°44.963 18.0795 4.568615 34.599576 10.317249
2009-07-22 08:13:02 51°22.605 2°44.947 18.0768 4.568511 34.599365 10.352073
2009-07-22 08:13:08 51°22.619 2°44.927 18.0758 4.568304 34.598944 10.352073
2009-07-22 08:13:12 51°22.628 2°44.913 18.0764 4.568408 34.600495 10.386897
2009-07-22 08:13:17 51°22.64 2°44.896 18.0741 4.568408 34.600495 10.386897
2009-07-22 08:13:22 51°22.651 2°44.879 18.0695 4.568096 34.600533 10.386897
2009-07-22 08:13:28 51°22.666 2°44.859 18.0744 4.567992 34.600993 10.456545
2009-07-22 08:13:32 51°22.675 2°44.845 18.0715 4.567888 34.600782 10.421721
2009-07-22 08:13:37 51°22.686 2°44.828 18.069 4.567888 34.602123 10.456545
2009-07-22 08:13:42 51°22.698 2°44.81 18.0719 4.567681 34.601031 10.456545
2009-07-22 08:13:48 51°22.712 2°44.789 18.0685 4.567681 34.601031 10.456545
2009-07-22 08:13:52 51°22.721 2°44.775 18.0667 4.567473 34.60061 10.456545
2009-07-22 08:13:57 51°22.733 2°44.759 18.0671 4.567473 34.602622 10.49137
2009-07-22 08:14:02 51°22.744 2°44.742 18.0673 4.567265 34.6022 10.526194
2009-07-22 08:14:08 51°22.758 2°44.721 18.0658 4.567265 34.6022 10.561018
2009-07-22 08:14:12 51°22.767 2°44.707 18.0648 4.567162 34.601989 10.561018
2009-07-22 08:14:17 51°22.779 2°44.69 18.0662 4.567162 34.601989 10.561018
2009-07-22 08:14:22 51°22.791 2°44.672 18.0654 4.567266 34.603542 10.561018
2009-07-22 08:14:28 51°22.804 2°44.651 18.0622 4.567058 34.602449 10.561018
2009-07-22 08:14:32 51°22.814 2°44.637 18.0659 4.567058 34.603791 10.595842
2009-07-22 08:14:37 51°22.825 2°44.62 18.0621 4.566954 34.60358 10.595842
2009-07-22 08:14:42 51°22.837 2°44.603 18.064 4.566746 34.602488 10.595842
2009-07-22 08:14:48 51°22.851 2°44.582 18.0586 4.566746 34.602488 10.595842
2009-07-22 08:14:52 51°22.86 2°44.568 18.0586 4.566746 34.603159 10.595842
2009-07-22 08:14:57 51°22.872 2°44.55 18.0595 4.566643 34.602948 10.630666
2009-07-22 08:15:02 51°22.883 2°44.533 18.0551 4.566435 34.601856 10.66549
2009-07-22 08:15:08 51°22.896 2°44.512 18.058 4.566435 34.603198 10.66549
2009-07-22 08:15:12 51°22.905 2°44.498 18.0553 4.566227 34.602105 10.66549
2009-07-22 08:15:17 51°22.917 2°44.481 18.0581 4.566227 34.602105 10.66549
2009-07-22 08:15:22 51°22.929 2°44.463 18.0569 4.566227 34.603447 10.700314
2009-07-22 08:15:28 51°22.943 2°44.443 18.0526 4.56602 34.602355 10.735138
2009-07-22 08:15:32 51°22.952 2°44.43 18.0544 4.56602 34.603697 10.700314
2009-07-22 08:15:37 51°22.964 2°44.412 18.0558 4.565916 34.604157 10.735138
2009-07-22 08:15:43 51°22.977 2°44.391 18.0537 4.565916 34.605499 10.735138
2009-07-22 08:15:48 51°22.988 2°44.374 18.0502 4.565916 34.605499 10.735138
2009-07-22 08:15:52 51°22.998 2°44.36 18.0511 4.565708 34.603735 10.769962
2009-07-22 08:15:57 51°23.01 2°44.343 18.0509 4.565812 34.604617 10.804786
2009-07-22 08:16:03 51°23.024 2°44.323 18.0516 4.565604 34.604196 10.804786
2009-07-22 08:16:08 51°23.036 2°44.305 18.0488 4.565501 34.603985 10.83961
2009-07-22 08:16:12 51°23.045 2°44.292 18.0495 4.565397 34.603103 10.83961
2009-07-22 08:16:17 51°23.057 2°44.274 18.0507 4.565397 34.603103 10.83961
2009-07-22 08:16:22 51°23.069 2°44.257 18.0534 4.565501 34.603985 10.874434
2009-07-22 08:16:28 51°23.083 2°44.236 18.0497 4.565397 34.604446 10.874434
2009-07-22 08:16:32 51°23.092 2°44.222 18.0489 4.564878 34.600707 10.909258
2009-07-22 08:16:37 51°23.104 2°44.205 18.0468 4.564462 34.597851 10.874434
2009-07-22 08:16:42 51°23.115 2°44.187 18.0468 4.56467 34.600286 10.909258
2009-07-22 08:16:48 51°23.13 2°44.167 18.0481 4.56467 34.600286 10.909258
2009-07-22 08:16:52 51°23.139 2°44.153 18.0445 4.564774 34.601168 10.909258
2009-07-22 08:16:57 51°23.151 2°44.136 18.0453 4.56467 34.600957 10.944082
2009-07-22 08:17:02 51°23.163 2°44.119 18.0476 4.56467 34.600286 10.978906
2009-07-22 08:17:08 51°23.177 2°44.099 18.047 4.56467 34.601628 11.01373
2009-07-22 08:17:12 51°23.187 2°44.084 18.0468 4.56467 34.602299 11.01373
2009-07-22 08:17:17 51°23.198 2°44.067 18.0465 4.56467 34.602299 11.01373
2009-07-22 08:17:22 51°23.21 2°44.049 18.0466 4.564462 34.601207 11.01373
2009-07-22 08:17:28 51°23.224 2°44.029 18.0442 4.564462 34.601207 11.01373
2009-07-22 08:17:32 51°23.234 2°44.015 18.0478 4.564462 34.601207 11.01373
2009-07-22 08:17:37 51°23.245 2°43.997 18.0441 4.564358 34.600996 11.01373
2009-07-22 08:17:42 51°23.257 2°43.979 18.0454 4.564462 34.601878 11.048554
2009-07-22 08:17:48 51°23.271 2°43.958 18.0465 4.564462 34.601878 11.048554
2009-07-22 08:17:52 51°23.281 2°43.944 18.0446 4.564358 34.600996 11.048554
2009-07-22 08:17:57 51°23.293 2°43.927 18.043 4.563839 34.596586 11.083378
2009-07-22 08:18:02 51°23.305 2°43.91 18.0423 4.563735 34.596375 11.083378
2009-07-22 08:18:08 51°23.319 2°43.889 18.0394 4.563216 34.591965 11.083378
2009-07-22 08:18:12 51°23.328 2°43.875 18.0393 4.564358 34.602338 11.118203
2009-07-22 08:18:17 51°23.34 2°43.857 18.0421 4.564358 34.602338 11.118203
2009-07-22 08:18:22 51°23.352 2°43.84 18.0444 4.563424 34.5944 11.153027
2009-07-22 08:18:28 51°23.366 2°43.819 18.0407 4.564151 34.600574 11.118203
2009-07-22 08:18:32 51°23.375 2°43.806 18.0406 4.563424 34.595743 11.153027
2009-07-22 08:18:37 51°23.387 2°43.789 18.0402 4.563839 34.599942 11.153027
2009-07-22 08:18:42 51°23.399 2°43.772 18.0411 4.563216 34.595321 11.153027
2009-07-22 08:18:48 51°23.413 2°43.751 18.0396 4.563216 34.595321 11.153027
2009-07-22 08:18:52 51°23.422 2°43.737 18.0408 4.563528 34.598639 11.187851
2009-07-22 08:18:57 51°23.434 2°43.719 18.042 4.563632 34.599521 11.187851
2009-07-22 08:19:02 51°23.446 2°43.701 18.0416 4.563943 34.601496 11.222675
2009-07-22 08:19:08 51°23.46 2°43.68 18.0387 4.563839 34.601285 11.222675
2009-07-22 08:19:12 51°23.47 2°43.667 18.0413 4.563528 34.59931 11.222675
2009-07-22 08:19:17 51°23.482 2°43.649 18.041 4.563528 34.59931 11.222675
2009-07-22 08:19:22 51°23.493 2°43.632 18.0416 4.563839 34.602628 11.222675
2009-07-22 08:19:28 51°23.508 2°43.611 18.0412 4.563216 34.597335 11.222675
2009-07-22 08:19:32 51°23.517 2°43.597 18.0356 4.563736 34.601745 11.292323
2009-07-22 08:19:37 51°23.529 2°43.58 18.0399 4.563632 34.600192 11.257499
2009-07-22 08:19:42 51°23.541 2°43.564 18.0371 4.564047 34.604392 11.257499
2009-07-22 08:19:48 51°23.555 2°43.542 18.036 4.564047 34.604392 11.257499
2009-07-22 08:19:52 51°23.565 2°43.529 18.0348 4.564047 34.60372 11.257499
2009-07-22 08:19:57 51°23.577 2°43.511 18.0345 4.564151 34.604603 11.292323
2009-07-22 08:20:02 51°23.589 2°43.494 18.0342 4.563736 34.602417 11.327147